Time,TemperatureF,DewpointF,PressureIn,WindDirection,WindDirectionDegrees,WindSpeedMPH,WindSpeedGustMPH,Humidity,HourlyPrecipIn,Conditions,Clouds,dailyrainin,SolarRadiationWatts/m^2,SoftwareType,DateUTC
2013-02-23 00:00:00,24.7,21.4,29.94,SW,223,4.0,4.0,87,0.00,,,0.13,0,Wunderground v.1.15,2013-02-23 06:00:00,
2013-02-23 00:02:00,24.7,21.4,29.94,SW,223,4.0,4.0,87,0.00,,,0.00,0,Wunderground v.1.15,2013-02-23 06:02:00,
2013-02-23 00:03:00,24.7,21.4,29.94,SW,223,4.0,4.0,87,0.00,,,0.00,0,Wunderground v.1.15,2013-02-23 06:03:00,
2013-02-23 00:05:00,24.7,21.4,29.94,SW,223,4.0,4.0,87,0.00,,,0.00,0,Wunderground v.1.15,2013-02-23 06:05:00,
2013-02-23 00:08:00,24.7,21.4,29.94,SW,221,3.0,4.0,87,0.00,,,0.00,0,Wunderground v.1.15,2013-02-23 06:08:00,
2013-02-23 00:09:00,24.6,21.3,29.94,SW,221,3.0,4.0,87,0.00,,,0.00,0,Wunderground v.1.15,2013-02-23 06:09:00,
2013-02-23 00:10:00,24.6,21.3,29.94,SW,221,3.0,4.0,87,0.00,,,0.00,0,Wunderground v.1.15,2013-02-23 06:10:00,
2013-02-23 00:14:00,24.6,21.3,29.94,SW,221,2.0,4.0,87,0.00,,,0.00,0,Wunderground v.1.15,2013-02-23 06:14:00,
2013-02-23 00:15:00,24.6,21.3,29.94,SW,221,2.0,4.0,87,0.00,,,0.00,0,Wunderground v.1.15,2013-02-23 06:15:00,
2013-02-23 00:16:00,24.5,21.2,29.94,SW,221,2.0,4.0,87,0.00,,,0.00,0,Wunderground v.1.15,2013-02-23 06:16:00,
2013-02-23 00:19:00,24.5,21.2,29.94,SW,221,2.0,4.0,87,0.00,,,0.00,0,Wunderground v.1.15,2013-02-23 06:19:00,
2013-02-23 00:20:00,24.5,21.2,29.94,SW,221,2.0,2.0,87,0.00,,,0.00,0,Wunderground v.1.15,2013-02-23 06:20:00,
2013-02-23 00:21:00,24.5,21.2,29.94,SW,221,2.0,3.0,87,0.00,,,0.00,0,Wunderground v.1.15,2013-02-23 06:21:00,
2013-02-23 00:23:00,24.5,21.2,29.94,SW,221,2.0,4.0,87,0.00,,,0.00,0,Wunderground v.1.15,2013-02-23 06:23:00,
2013-02-23 00:25:00,24.5,21.2,29.94,SW,221,2.0,4.0,87,0.00,,,0.00,0,Wunderground v.1.15,2013-02-23 06:25:00,
2013-02-23 00:26:00,24.5,21.5,29.94,SW,220,2.0,4.0,88,0.00,,,0.00,0,Wunderground v.1.15,2013-02-23 06:26:00,
2013-02-23 00:30:00,24.4,21.4,29.94,SW,220,3.0,5.0,88,0.00,,,0.00,0,Wunderground v.1.15,2013-02-23 06:30:00,
2013-02-23 00:31:00,24.4,21.4,29.93,SW,220,3.0,5.0,88,0.00,,,0.00,0,Wunderground v.1.15,2013-02-23 06:31:00,
2013-02-23 00:32:00,24.4,21.4,29.93,SW,220,3.0,5.0,88,0.00,,,0.00,0,Wunderground v.1.15,2013-02-23 06:32:00,
2013-02-23 00:33:00,24.4,21.4,29.93,SW,220,4.0,5.0,88,0.00,,,0.00,0,Wunderground v.1.15,2013-02-23 06:33:00,
2013-02-23 00:36:00,24.3,21.0,29.93,SW,220,4.0,7.0,87,0.00,,,0.00,0,Wunderground v.1.15,2013-02-23 06:36:00,
2013-02-23 00:39:00,24.3,21.0,29.93,SW,218,5.0,7.0,87,0.00,,,0.00,0,Wunderground v.1.15,2013-02-23 06:39:00,
2013-02-23 00:41:00,24.3,21.0,29.93,SW,217,5.0,6.0,87,0.00,,,0.00,0,Wunderground v.1.15,2013-02-23 06:41:00,
2013-02-23 00:42:00,24.3,21.3,29.93,SW,217,5.0,6.0,88,0.00,,,0.00,0,Wunderground v.1.15,2013-02-23 06:42:00,
2013-02-23 00:46:00,24.3,21.0,29.93,SSW,207,5.0,7.0,87,0.00,,,0.00,0,Wunderground v.1.15,2013-02-23 06:46:00,
2013-02-23 00:48:00,24.3,21.0,29.93,SSW,207,5.0,7.0,87,0.00,,,0.00,0,Wunderground v.1.15,2013-02-23 06:48:00,
2013-02-23 00:52:00,24.3,21.3,29.93,SSW,207,4.0,4.0,88,0.00,,,0.00,0,Wunderground v.1.15,2013-02-23 06:52:00,
2013-02-23 00:53:00,24.2,21.2,29.93,SSW,207,3.0,4.0,88,0.00,,,0.00,0,Wunderground v.1.15,2013-02-23 06:53:00,
2013-02-23 00:54:00,24.2,21.2,29.93,SSW,207,3.0,4.0,88,0.00,,,0.00,0,Wunderground v.1.15,2013-02-23 06:54:00,
2013-02-23 00:55:00,24.2,21.2,29.93,SSW,207,3.0,4.0,88,0.00,,,0.00,0,Wunderground v.1.15,2013-02-23 06:55:00,
2013-02-23 00:59:00,24.2,21.2,29.93,SSW,207,2.0,4.0,88,0.00,,,0.00,0,Wunderground v.1.15,2013-02-23 06:59:00,
2013-02-23 01:00:00,24.2,21.2,29.93,SSW,207,1.0,1.0,88,0.00,,,0.00,0,Wunderground v.1.15,2013-02-23 07:00:00,
2013-02-23 01:01:00,24.2,20.9,29.93,SW,232,2.0,2.0,87,0.00,,,0.00,0,Wunderground v.1.15,2013-02-23 07:01:00,
2013-02-23 01:05:00,24.1,21.1,29.93,SSW,213,2.0,4.0,88,0.00,,,0.00,0,Wunderground v.1.15,2013-02-23 07:05:00,
2013-02-23 01:06:00,24.2,21.2,29.93,SSW,213,1.0,4.0,88,0.00,,,0.00,0,Wunderground v.1.15,2013-02-23 07:06:00,
2013-02-23 01:09:00,24.1,20.8,29.93,SW,225,2.0,4.0,87,0.00,,,0.00,0,Wunderground v.1.15,2013-02-23 07:09:00,
2013-02-23 01:11:00,24.1,20.8,29.93,SW,225,2.0,2.0,87,0.00,,,0.00,0,Wunderground v.1.15,2013-02-23 07:11:00,
2013-02-23 01:12:00,24.1,20.8,29.93,SW,225,2.0,2.0,87,0.00,,,0.00,0,Wunderground v.1.15,2013-02-23 07:12:00,
2013-02-23 01:14:00,24.1,21.1,29.93,SW,225,2.0,2.0,88,0.00,,,0.00,0,Wunderground v.1.15,2013-02-23 07:14:00,
2013-02-23 01:17:00,24.0,21.0,29.93,SW,227,1.0,2.0,88,0.00,,,0.00,0,Wunderground v.1.15,2013-02-23 07:17:00,
2013-02-23 01:20:00,24.0,21.0,29.93,SW,227,1.0,1.0,88,0.00,,,0.00,0,Wunderground v.1.15,2013-02-23 07:20:00,
2013-02-23 01:22:00,23.9,20.9,29.93,SW,227,1.0,1.0,88,0.00,,,0.00,0,Wunderground v.1.15,2013-02-23 07:22:00,
2013-02-23 01:23:00,23.9,20.9,29.93,SW,227,1.0,1.0,88,0.00,,,0.00,0,Wunderground v.1.15,2013-02-23 07:23:00,
2013-02-23 01:24:00,23.9,20.9,29.93,SW,227,1.0,1.0,88,0.00,,,0.00,0,Wunderground v.1.15,2013-02-23 07:24:00,
2013-02-23 01:25:00,23.9,20.9,29.93,SW,223,1.0,6.0,88,0.00,,,0.00,0,Wunderground v.1.15,2013-02-23 07:25:00,
2013-02-23 01:29:00,23.9,20.9,29.93,SW,222,1.0,6.0,88,0.00,,,0.00,0,Wunderground v.1.15,2013-02-23 07:29:00,
2013-02-23 01:30:00,23.8,20.8,29.93,SW,222,1.0,3.0,88,0.00,,,0.00,0,Wunderground v.1.15,2013-02-23 07:30:00,
2013-02-23 01:32:00,23.8,20.8,29.93,SW,232,1.0,4.0,88,0.00,,,0.00,0,Wunderground v.1.15,2013-02-23 07:32:00,
2013-02-23 01:37:00,23.8,20.8,29.93,WSW,239,2.0,5.0,88,0.00,,,0.00,0,Wunderground v.1.15,2013-02-23 07:37:00,
2013-02-23 01:38:00,23.9,20.9,29.93,SW,230,3.0,5.0,88,0.00,,,0.00,0,Wunderground v.1.15,2013-02-23 07:38:00,
2013-02-23 01:39:00,23.9,20.9,29.93,SW,232,3.0,5.0,88,0.00,,,0.00,0,Wunderground v.1.15,2013-02-23 07:39:00,
2013-02-23 01:41:00,23.9,20.9,29.93,SW,219,3.0,4.0,88,0.00,,,0.00,0,Wunderground v.1.15,2013-02-23 07:41:00,
2013-02-23 01:42:00,23.9,20.9,29.93,SW,219,3.0,4.0,88,0.00,,,0.00,0,Wunderground v.1.15,2013-02-23 07:42:00,
2013-02-23 01:44:00,23.9,20.9,29.93,SW,219,3.0,4.0,88,0.00,,,0.00,0,Wunderground v.1.15,2013-02-23 07:44:00,
2013-02-23 01:48:00,23.9,20.9,29.93,SW,223,3.0,6.0,88,0.00,,,0.00,0,Wunderground v.1.15,2013-02-23 07:48:00,
2013-02-23 01:49:00,23.9,20.9,29.93,SW,223,3.0,6.0,88,0.00,,,0.00,0,Wunderground v.1.15,2013-02-23 07:49:00,
2013-02-23 01:52:00,23.9,20.9,29.93,SW,223,2.0,2.0,88,0.00,,,0.00,0,Wunderground v.1.15,2013-02-23 07:52:00,
2013-02-23 01:55:00,23.8,20.8,29.93,WSW,242,3.0,3.0,88,0.00,,,0.00,0,Wunderground v.1.15,2013-02-23 07:55:00,
2013-02-23 01:58:00,23.9,20.9,29.94,WSW,242,2.0,3.0,88,0.00,,,0.00,0,Wunderground v.1.15,2013-02-23 07:58:00,
2013-02-23 02:01:00,23.8,20.8,29.94,SW,227,2.0,2.0,88,0.00,,,0.00,0,Wunderground v.1.15,2013-02-23 08:01:00,
2013-02-23 02:04:00,23.8,20.8,29.94,SW,227,2.0,2.0,88,0.00,,,0.00,0,Wunderground v.1.15,2013-02-23 08:04:00,
2013-02-23 02:05:00,23.9,20.9,29.94,SW,227,2.0,3.0,88,0.00,,,0.00,0,Wunderground v.1.15,2013-02-23 08:05:00,
2013-02-23 02:06:00,23.8,20.8,29.94,SW,227,2.0,4.0,88,0.00,,,0.00,0,Wunderground v.1.15,2013-02-23 08:06:00,
2013-02-23 02:08:00,23.8,20.8,29.94,SW,227,2.0,4.0,88,0.00,,,0.00,0,Wunderground v.1.15,2013-02-23 08:08:00,
2013-02-23 02:13:00,23.8,20.8,29.94,SW,227,1.0,1.0,88,0.00,,,0.00,0,Wunderground v.1.15,2013-02-23 08:13:00,
2013-02-23 02:14:00,23.8,20.8,29.94,SW,227,1.0,3.0,88,0.00,,,0.00,0,Wunderground v.1.15,2013-02-23 08:14:00,
2013-02-23 02:15:00,23.8,20.8,29.94,SW,227,2.0,4.0,88,0.00,,,0.00,0,Wunderground v.1.15,2013-02-23 08:15:00,
2013-02-23 02:16:00,23.8,20.8,29.94,SW,227,1.0,4.0,88,0.00,,,0.00,0,Wunderground v.1.15,2013-02-23 08:16:00,
2013-02-23 02:19:00,23.8,20.8,29.94,SW,230,2.0,6.0,88,0.00,,,0.00,0,Wunderground v.1.15,2013-02-23 08:19:00,
2013-02-23 02:22:00,23.8,20.8,29.94,SW,230,2.0,2.0,88,0.00,,,0.00,0,Wunderground v.1.15,2013-02-23 08:22:00,
2013-02-23 02:25:00,23.8,20.8,29.94,SW,230,2.0,3.0,88,0.00,,,0.00,0,Wunderground v.1.15,2013-02-23 08:25:00,
2013-02-23 02:26:00,23.8,20.8,29.94,SW,230,2.0,3.0,88,0.00,,,0.00,0,Wunderground v.1.15,2013-02-23 08:26:00,
2013-02-23 02:29:00,23.8,20.8,29.94,SW,230,1.0,3.0,88,0.00,,,0.00,0,Wunderground v.1.15,2013-02-23 08:29:00,
2013-02-23 02:30:00,23.8,20.8,29.94,SW,230,1.0,1.0,88,0.00,,,0.00,0,Wunderground v.1.15,2013-02-23 08:30:00,
2013-02-23 02:31:00,23.7,20.7,29.94,SW,230,1.0,2.0,88,0.00,,,0.00,0,Wunderground v.1.15,2013-02-23 08:31:00,
2013-02-23 02:32:00,23.7,20.7,29.94,SW,230,1.0,2.0,88,0.00,,,0.00,0,Wunderground v.1.15,2013-02-23 08:32:00,
2013-02-23 02:37:00,23.6,20.6,29.94,SW,230,2.0,5.0,88,0.00,,,0.00,0,Wunderground v.1.15,2013-02-23 08:37:00,
2013-02-23 02:38:00,23.6,20.6,29.94,SW,230,2.0,5.0,88,0.00,,,0.00,0,Wunderground v.1.15,2013-02-23 08:38:00,
2013-02-23 02:39:00,23.6,20.6,29.94,SW,230,2.0,5.0,88,0.00,,,0.00,0,Wunderground v.1.15,2013-02-23 08:39:00,
2013-02-23 02:40:00,23.6,20.6,29.93,SW,230,1.0,1.0,88,0.00,,,0.00,0,Wunderground v.1.15,2013-02-23 08:40:00,
2013-02-23 02:43:00,23.6,20.6,29.94,SW,230,1.0,1.0,88,0.00,,,0.00,0,Wunderground v.1.15,2013-02-23 08:43:00,
2013-02-23 02:45:00,23.5,20.5,29.93,SW,230,0.0,1.0,88,0.00,,,0.00,0,Wunderground v.1.15,2013-02-23 08:45:00,
2013-02-23 02:47:00,23.5,20.5,29.94,SW,230,0.0,1.0,88,0.00,,,0.00,0,Wunderground v.1.15,2013-02-23 08:47:00,
2013-02-23 02:48:00,23.5,20.5,29.94,SW,230,0.0,3.0,88,0.00,,,0.00,0,Wunderground v.1.15,2013-02-23 08:48:00,
2013-02-23 02:49:00,23.5,20.5,29.94,SW,230,0.0,3.0,88,0.00,,,0.00,0,Wunderground v.1.15,2013-02-23 08:49:00,
2013-02-23 02:51:00,23.5,20.5,29.94,SW,230,1.0,4.0,88,0.00,,,0.00,0,Wunderground v.1.15,2013-02-23 08:51:00,
2013-02-23 02:54:00,23.5,20.5,29.94,SW,230,2.0,4.0,88,0.00,,,0.00,0,Wunderground v.1.15,2013-02-23 08:54:00,
2013-02-23 02:57:00,23.4,20.4,29.93,SW,229,2.0,4.0,88,0.00,,,0.00,0,Wunderground v.1.15,2013-02-23 08:57:00,
2013-02-23 02:58:00,23.4,20.4,29.93,SW,229,2.0,4.0,88,0.00,,,0.00,0,Wunderground v.1.15,2013-02-23 08:58:00,
2013-02-23 02:59:00,23.4,20.4,29.93,SW,229,2.0,4.0,88,0.00,,,0.00,0,Wunderground v.1.15,2013-02-23 08:59:00,
2013-02-23 03:05:00,23.4,20.4,29.93,SW,229,2.0,2.0,88,0.00,,,0.00,0,Wunderground v.1.15,2013-02-23 09:05:00,
2013-02-23 03:07:00,23.4,20.4,29.93,SW,229,2.0,2.0,88,0.00,,,0.00,0,Wunderground v.1.15,2013-02-23 09:07:00,
2013-02-23 03:10:00,23.4,20.6,29.93,SW,229,2.0,2.0,89,0.00,,,0.00,0,Wunderground v.1.15,2013-02-23 09:10:00,
2013-02-23 03:12:00,23.4,20.6,29.93,SW,229,2.0,2.0,89,0.00,,,0.00,0,Wunderground v.1.15,2013-02-23 09:12:00,
2013-02-23 03:15:00,23.4,20.6,29.93,SW,229,1.0,2.0,89,0.00,,,0.00,0,Wunderground v.1.15,2013-02-23 09:15:00,
2013-02-23 03:18:00,23.4,20.6,29.93,SW,229,1.0,3.0,89,0.00,,,0.00,0,Wunderground v.1.15,2013-02-23 09:18:00,
2013-02-23 03:19:00,23.4,20.6,29.93,SW,229,1.0,4.0,89,0.00,,,0.00,0,Wunderground v.1.15,2013-02-23 09:19:00,
2013-02-23 03:21:00,23.4,20.6,29.93,SW,229,1.0,2.0,89,0.00,,,0.00,0,Wunderground v.1.15,2013-02-23 09:21:00,
2013-02-23 03:24:00,23.4,20.6,29.93,SW,229,1.0,2.0,89,0.00,,,0.00,0,Wunderground v.1.15,2013-02-23 09:24:00,
2013-02-23 03:25:00,23.4,20.6,29.93,SW,229,1.0,2.0,89,0.00,,,0.00,0,Wunderground v.1.15,2013-02-23 09:25:00,
2013-02-23 03:26:00,23.4,20.6,29.93,SW,229,1.0,2.0,89,0.00,,,0.00,0,Wunderground v.1.15,2013-02-23 09:26:00,
2013-02-23 03:29:00,23.4,20.6,29.93,SW,229,1.0,2.0,89,0.00,,,0.00,0,Wunderground v.1.15,2013-02-23 09:29:00,
2013-02-23 03:31:00,23.4,20.6,29.93,SW,229,1.0,1.0,89,0.00,,,0.00,0,Wunderground v.1.15,2013-02-23 09:31:00,
2013-02-23 03:32:00,23.4,20.6,29.93,SW,229,1.0,1.0,89,0.00,,,0.00,0,Wunderground v.1.15,2013-02-23 09:32:00,
2013-02-23 03:34:00,23.3,20.5,29.93,SW,229,1.0,1.0,89,0.00,,,0.00,0,Wunderground v.1.15,2013-02-23 09:34:00,
2013-02-23 03:36:00,23.3,20.5,29.93,SW,229,1.0,1.0,89,0.00,,,0.00,0,Wunderground v.1.15,2013-02-23 09:36:00,
2013-02-23 03:37:00,23.4,20.6,29.93,SW,229,1.0,1.0,89,0.00,,,0.00,0,Wunderground v.1.15,2013-02-23 09:37:00,
2013-02-23 03:42:00,23.3,20.5,29.93,SW,229,1.0,2.0,89,0.00,,,0.00,0,Wunderground v.1.15,2013-02-23 09:42:00,
2013-02-23 03:44:00,23.3,20.5,29.93,SW,227,1.0,4.0,89,0.00,,,0.00,0,Wunderground v.1.15,2013-02-23 09:44:00,
2013-02-23 03:46:00,23.3,20.5,29.93,SW,227,1.0,4.0,89,0.00,,,0.00,0,Wunderground v.1.15,2013-02-23 09:46:00,
2013-02-23 03:50:00,23.3,20.5,29.93,SW,227,2.0,2.0,89,0.00,,,0.00,0,Wunderground v.1.15,2013-02-23 09:50:00,
2013-02-23 03:51:00,23.2,20.4,29.93,SW,227,1.0,2.0,89,0.00,,,0.00,0,Wunderground v.1.15,2013-02-23 09:51:00,
2013-02-23 03:52:00,23.2,20.4,29.93,SW,225,1.0,5.0,89,0.00,,,0.00,0,Wunderground v.1.15,2013-02-23 09:52:00,
2013-02-23 03:57:00,23.2,20.4,29.93,SW,224,2.0,5.0,89,0.00,,,0.00,0,Wunderground v.1.15,2013-02-23 09:57:00,
2013-02-23 03:59:00,23.2,20.4,29.93,SW,224,2.0,5.0,89,0.00,,,0.00,0,Wunderground v.1.15,2013-02-23 09:59:00,
2013-02-23 04:00:00,23.2,20.4,29.93,SW,224,2.0,3.0,89,0.00,,,0.00,0,Wunderground v.1.15,2013-02-23 10:00:00,
2013-02-23 04:03:00,23.1,20.3,29.93,SW,224,2.0,3.0,89,0.00,,,0.00,0,Wunderground v.1.15,2013-02-23 10:03:00,
2013-02-23 04:05:00,23.1,20.3,29.93,SW,215,2.0,5.0,89,0.00,,,0.00,0,Wunderground v.1.15,2013-02-23 10:05:00,
2013-02-23 04:06:00,23.1,20.3,29.93,SW,215,2.0,5.0,89,0.00,,,0.00,0,Wunderground v.1.15,2013-02-23 10:06:00,
2013-02-23 04:07:00,23.1,20.3,29.93,SW,215,2.0,5.0,89,0.00,,,0.00,0,Wunderground v.1.15,2013-02-23 10:07:00,
2013-02-23 04:12:00,23.0,20.2,29.93,South,184,3.0,6.0,89,0.00,,,0.00,0,Wunderground v.1.15,2013-02-23 10:12:00,
2013-02-23 04:14:00,23.0,20.2,29.93,SSE,153,3.0,6.0,89,0.00,,,0.00,0,Wunderground v.1.15,2013-02-23 10:14:00,
2013-02-23 04:15:00,23.0,20.2,29.93,SSE,150,4.0,8.0,89,0.00,,,0.00,0,Wunderground v.1.15,2013-02-23 10:15:00,
2013-02-23 04:17:00,23.0,20.2,29.93,SSE,158,4.0,8.0,89,0.00,,,0.00,0,Wunderground v.1.15,2013-02-23 10:17:00,
2013-02-23 04:21:00,23.0,20.2,29.93,SSE,153,4.0,4.0,89,0.00,,,0.00,0,Wunderground v.1.15,2013-02-23 10:21:00,
2013-02-23 04:22:00,23.0,20.2,29.93,SSE,153,4.0,4.0,89,0.00,,,0.00,0,Wunderground v.1.15,2013-02-23 10:22:00,
2013-02-23 04:24:00,22.9,20.1,29.93,SSE,153,4.0,4.0,89,0.00,,,0.00,0,Wunderground v.1.15,2013-02-23 10:24:00,
2013-02-23 04:25:00,22.9,20.1,29.93,SSE,153,3.0,4.0,89,0.00,,,0.00,0,Wunderground v.1.15,2013-02-23 10:25:00,
2013-02-23 04:28:00,22.9,20.1,29.93,SSE,157,3.0,6.0,89,0.00,,,0.00,0,Wunderground v.1.15,2013-02-23 10:28:00,
2013-02-23 04:30:00,22.9,20.1,29.93,SSE,159,3.0,3.0,89,0.00,,,0.00,0,Wunderground v.1.15,2013-02-23 10:30:00,
2013-02-23 04:34:00,22.9,20.1,29.93,SSE,157,3.0,3.0,89,0.00,,,0.00,0,Wunderground v.1.15,2013-02-23 10:34:00,
2013-02-23 04:36:00,22.8,20.0,29.93,SSE,157,3.0,5.0,89,0.00,,,0.00,0,Wunderground v.1.15,2013-02-23 10:36:00,
2013-02-23 04:37:00,22.8,20.0,29.93,SSE,157,3.0,5.0,89,0.00,,,0.00,0,Wunderground v.1.15,2013-02-23 10:37:00,
2013-02-23 04:38:00,22.8,20.0,29.94,SSE,157,3.0,5.0,89,0.00,,,0.00,0,Wunderground v.1.15,2013-02-23 10:38:00,
2013-02-23 04:40:00,22.8,20.0,29.93,SSE,157,3.0,3.0,89,0.00,,,0.00,0,Wunderground v.1.15,2013-02-23 10:40:00,
2013-02-23 04:42:00,22.8,20.0,29.94,SSE,157,2.0,3.0,89,0.00,,,0.00,0,Wunderground v.1.15,2013-02-23 10:42:00,
2013-02-23 04:43:00,22.8,20.0,29.93,SSE,157,2.0,3.0,89,0.00,,,0.00,0,Wunderground v.1.15,2013-02-23 10:43:00,
2013-02-23 04:44:00,22.8,20.0,29.93,SSE,157,2.0,3.0,89,0.00,,,0.00,0,Wunderground v.1.15,2013-02-23 10:44:00,
2013-02-23 04:48:00,22.8,20.0,29.94,SSE,157,1.0,3.0,89,0.00,,,0.00,0,Wunderground v.1.15,2013-02-23 10:48:00,
2013-02-23 04:49:00,22.8,20.0,29.94,SSE,157,1.0,3.0,89,0.00,,,0.00,0,Wunderground v.1.15,2013-02-23 10:49:00,
2013-02-23 04:50:00,22.8,20.0,29.94,SSE,157,1.0,2.0,89,0.00,,,0.00,0,Wunderground v.1.15,2013-02-23 10:50:00,
2013-02-23 04:51:00,22.9,20.1,29.93,SSE,157,1.0,2.0,89,0.00,,,0.00,0,Wunderground v.1.15,2013-02-23 10:51:00,
2013-02-23 04:53:00,22.9,20.1,29.94,SSE,157,0.0,2.0,89,0.00,,,0.00,0,Wunderground v.1.15,2013-02-23 10:53:00,
2013-02-23 04:55:00,22.8,20.0,29.94,SSE,157,0.0,2.0,89,0.00,,,0.00,0,Wunderground v.1.15,2013-02-23 10:55:00,
2013-02-23 04:57:00,22.8,20.0,29.94,SSE,157,0.0,2.0,89,0.00,,,0.00,0,Wunderground v.1.15,2013-02-23 10:57:00,
2013-02-23 04:59:00,22.8,20.0,29.94,SSE,157,0.0,2.0,89,0.00,,,0.00,0,Wunderground v.1.15,2013-02-23 10:59:00,
2013-02-23 05:01:00,22.7,19.9,29.94,SSE,157,0.0,0.0,89,0.00,,,0.00,0,Wunderground v.1.15,2013-02-23 11:01:00,
2013-02-23 05:03:00,22.7,19.9,29.94,SSE,157,0.0,0.0,89,0.00,,,0.00,0,Wunderground v.1.15,2013-02-23 11:03:00,
2013-02-23 05:04:00,22.7,19.9,29.94,SSE,157,0.0,0.0,89,0.00,,,0.00,0,Wunderground v.1.15,2013-02-23 11:04:00,
2013-02-23 05:06:00,22.7,19.9,29.94,SSE,157,0.0,0.0,89,0.00,,,0.00,0,Wunderground v.1.15,2013-02-23 11:06:00,
2013-02-23 05:08:00,22.7,19.9,29.94,SSE,157,0.0,2.0,89,0.00,,,0.00,0,Wunderground v.1.15,2013-02-23 11:08:00,
2013-02-23 05:12:00,22.7,19.9,29.94,SSE,157,0.0,1.0,89,0.00,,,0.00,0,Wunderground v.1.15,2013-02-23 11:12:00,
2013-02-23 05:14:00,22.6,19.8,29.94,SSE,157,0.0,2.0,89,0.00,,,0.00,0,Wunderground v.1.15,2013-02-23 11:14:00,
2013-02-23 05:16:00,22.6,19.8,29.94,SSE,157,1.0,4.0,89,0.00,,,0.00,0,Wunderground v.1.15,2013-02-23 11:16:00,
2013-02-23 05:17:00,22.6,19.8,29.94,SSE,158,1.0,4.0,89,0.00,,,0.00,0,Wunderground v.1.15,2013-02-23 11:17:00,
2013-02-23 05:18:00,22.6,19.8,29.94,SSE,159,1.0,6.0,89,0.00,,,0.00,0,Wunderground v.1.15,2013-02-23 11:18:00,
2013-02-23 05:22:00,22.6,19.8,29.94,SSE,161,1.0,1.0,89,0.00,,,0.00,0,Wunderground v.1.15,2013-02-23 11:22:00,
2013-02-23 05:24:00,22.6,19.8,29.94,SSE,161,1.0,1.0,89,0.00,,,0.00,0,Wunderground v.1.15,2013-02-23 11:24:00,
2013-02-23 05:29:00,22.5,19.7,29.94,SSE,161,1.0,2.0,89,0.00,,,0.00,0,Wunderground v.1.15,2013-02-23 11:29:00,
2013-02-23 05:30:00,22.5,19.7,29.94,SSE,160,1.0,6.0,89,0.00,,,0.00,0,Wunderground v.1.15,2013-02-23 11:30:00,
2013-02-23 05:34:00,22.5,19.7,29.94,SSW,204,2.0,7.0,89,0.00,,,0.00,0,Wunderground v.1.15,2013-02-23 11:34:00,
2013-02-23 05:35:00,22.4,19.6,29.94,SSW,196,3.0,7.0,89,0.00,,,0.00,0,Wunderground v.1.15,2013-02-23 11:35:00,
2013-02-23 05:36:00,22.5,19.7,29.94,SSW,195,3.0,7.0,89,0.00,,,0.00,0,Wunderground v.1.15,2013-02-23 11:36:00,
2013-02-23 05:41:00,22.4,19.6,29.94,SW,224,3.0,3.0,89,0.00,,,0.00,0,Wunderground v.1.15,2013-02-23 11:41:00,
2013-02-23 05:42:00,22.4,19.6,29.94,SW,215,3.0,3.0,89,0.00,,,0.00,0,Wunderground v.1.15,2013-02-23 11:42:00,
2013-02-23 05:45:00,22.4,19.6,29.95,South,190,3.0,4.0,89,0.00,,,0.00,0,Wunderground v.1.15,2013-02-23 11:45:00,
2013-02-23 05:46:00,22.4,19.6,29.95,SSW,192,3.0,4.0,89,0.00,,,0.00,0,Wunderground v.1.15,2013-02-23 11:46:00,
2013-02-23 05:47:00,22.4,19.6,29.94,SSW,192,3.0,4.0,89,0.00,,,0.00,0,Wunderground v.1.15,2013-02-23 11:47:00,
2013-02-23 05:49:00,22.3,19.6,29.95,SSW,192,3.0,4.0,89,0.00,,,0.00,0,Wunderground v.1.15,2013-02-23 11:49:00,
2013-02-23 05:51:00,22.3,19.6,29.95,SSW,192,2.0,4.0,89,0.00,,,0.00,0,Wunderground v.1.15,2013-02-23 11:51:00,
2013-02-23 05:53:00,22.2,19.5,29.95,South,188,2.0,4.0,89,0.00,,,0.00,0,Wunderground v.1.15,2013-02-23 11:53:00,
2013-02-23 05:54:00,22.2,19.5,29.95,South,188,2.0,4.0,89,0.00,,,0.00,0,Wunderground v.1.15,2013-02-23 11:54:00,
2013-02-23 05:56:00,22.2,19.5,29.95,South,188,2.0,4.0,89,0.00,,,0.00,0,Wunderground v.1.15,2013-02-23 11:56:00,
2013-02-23 05:57:00,22.2,19.5,29.95,South,188,2.0,4.0,89,0.00,,,0.00,0,Wunderground v.1.15,2013-02-23 11:57:00,
2013-02-23 06:01:00,22.2,19.5,29.95,South,188,1.0,1.0,89,0.00,,,0.00,0,Wunderground v.1.15,2013-02-23 12:01:00,
2013-02-23 06:02:00,22.2,19.5,29.95,South,188,1.0,1.0,89,0.00,,,0.00,0,Wunderground v.1.15,2013-02-23 12:02:00,
2013-02-23 06:06:00,22.2,19.5,29.95,South,188,0.0,1.0,89,0.00,,,0.00,0,Wunderground v.1.15,2013-02-23 12:06:00,
2013-02-23 06:07:00,22.2,19.5,29.95,South,188,0.0,2.0,89,0.00,,,0.00,0,Wunderground v.1.15,2013-02-23 12:07:00,
2013-02-23 06:08:00,22.2,19.5,29.95,South,188,0.0,2.0,89,0.00,,,0.00,0,Wunderground v.1.15,2013-02-23 12:08:00,
2013-02-23 06:10:00,22.2,19.5,29.95,South,188,0.0,0.0,89,0.00,,,0.00,0,Wunderground v.1.15,2013-02-23 12:10:00,
2013-02-23 06:13:00,22.2,19.5,29.95,South,188,0.0,0.0,89,0.00,,,0.00,0,Wunderground v.1.15,2013-02-23 12:13:00,
2013-02-23 06:17:00,22.2,19.5,29.95,South,188,0.0,0.0,89,0.00,,,0.00,0,Wunderground v.1.15,2013-02-23 12:17:00,
2013-02-23 06:19:00,22.2,19.5,29.95,South,188,0.0,0.0,89,0.00,,,0.00,0,Wunderground v.1.15,2013-02-23 12:19:00,
2013-02-23 06:22:00,22.2,19.5,29.95,South,188,0.0,1.0,89,0.00,,,0.00,0,Wunderground v.1.15,2013-02-23 12:22:00,
2013-02-23 06:24:00,22.1,19.4,29.95,SE,143,1.0,6.0,89,0.00,,,0.00,0,Wunderground v.1.15,2013-02-23 12:24:00,
2013-02-23 06:25:00,22.1,19.4,29.95,SSE,161,1.0,6.0,89,0.00,,,0.00,0,Wunderground v.1.15,2013-02-23 12:25:00,
2013-02-23 06:28:00,22.1,19.4,29.95,SSE,161,2.0,6.0,89,0.00,,,0.00,0,Wunderground v.1.15,2013-02-23 12:28:00,
2013-02-23 06:31:00,22.1,19.4,29.95,SSE,161,2.0,2.0,89,0.00,,,0.00,0,Wunderground v.1.15,2013-02-23 12:31:00,
2013-02-23 06:32:00,22.1,19.4,29.95,SSE,161,2.0,2.0,89,0.00,,,0.00,0,Wunderground v.1.15,2013-02-23 12:32:00,
2013-02-23 06:35:00,22.1,19.4,29.95,SSE,164,1.0,5.0,89,0.00,,,0.00,0,Wunderground v.1.15,2013-02-23 12:35:00,
2013-02-23 06:37:00,22.0,19.3,29.95,SSE,164,1.0,5.0,89,0.00,,,0.00,0,Wunderground v.1.15,2013-02-23 12:37:00,
2013-02-23 06:38:00,22.1,19.4,29.95,SSE,164,1.0,5.0,89,0.00,,,0.00,0,Wunderground v.1.15,2013-02-23 12:38:00,
2013-02-23 06:40:00,22.0,19.3,29.95,SSE,164,2.0,2.0,89,0.00,,,0.00,0,Wunderground v.1.15,2013-02-23 12:40:00,
2013-02-23 06:43:00,22.0,19.3,29.96,SSE,164,2.0,2.0,89,0.00,,,0.00,0,Wunderground v.1.15,2013-02-23 12:43:00,
2013-02-23 06:46:00,22.0,19.3,29.96,SSE,164,2.0,4.0,89,0.00,,,0.00,0,Wunderground v.1.15,2013-02-23 12:46:00,
2013-02-23 06:47:00,22.0,19.3,29.96,SW,229,3.0,5.0,89,0.00,,,0.00,0,Wunderground v.1.15,2013-02-23 12:47:00,
2013-02-23 06:49:00,21.9,19.2,29.96,SSW,211,3.0,5.0,89,0.00,,,0.00,0,Wunderground v.1.15,2013-02-23 12:49:00,
2013-02-23 06:50:00,21.9,19.2,29.96,SSW,201,3.0,3.0,89,0.00,,,0.00,0,Wunderground v.1.15,2013-02-23 12:50:00,
2013-02-23 06:53:00,21.9,19.2,29.96,SSW,195,3.0,3.0,89,0.00,,,0.00,0,Wunderground v.1.15,2013-02-23 12:53:00,
2013-02-23 06:54:00,21.9,19.2,29.96,SSW,195,3.0,3.0,89,0.00,,,0.00,0,Wunderground v.1.15,2013-02-23 12:54:00,
2013-02-23 06:55:00,21.8,19.1,29.96,SSW,195,2.0,3.0,89,0.00,,,0.00,0,Wunderground v.1.15,2013-02-23 12:55:00,
2013-02-23 06:58:00,21.8,19.1,29.96,South,188,2.0,4.0,89,0.00,,,0.00,5,Wunderground v.1.15,2013-02-23 12:58:00,
2013-02-23 06:59:00,21.8,19.1,29.96,South,188,2.0,4.0,89,0.00,,,0.00,5,Wunderground v.1.15,2013-02-23 12:59:00,
2013-02-23 07:01:00,21.8,19.1,29.96,South,185,2.0,3.0,89,0.00,,,0.00,5,Wunderground v.1.15,2013-02-23 13:01:00,
2013-02-23 07:04:00,21.8,19.1,29.96,South,173,2.0,5.0,89,0.00,,,0.00,5,Wunderground v.1.15,2013-02-23 13:04:00,
2013-02-23 07:05:00,21.8,19.1,29.96,South,173,3.0,5.0,89,0.00,,,0.00,7,Wunderground v.1.15,2013-02-23 13:05:00,
2013-02-23 07:07:00,21.8,19.1,29.96,South,180,3.0,5.0,89,0.00,,,0.00,7,Wunderground v.1.15,2013-02-23 13:07:00,
2013-02-23 07:08:00,21.8,19.1,29.96,SSW,201,3.0,5.0,89,0.00,,,0.00,9,Wunderground v.1.15,2013-02-23 13:08:00,
2013-02-23 07:10:00,21.8,19.1,29.96,SSW,202,3.0,3.0,89,0.00,,,0.00,9,Wunderground v.1.15,2013-02-23 13:10:00,
2013-02-23 07:13:00,21.8,19.1,29.96,SSW,201,3.0,3.0,89,0.00,,,0.00,11,Wunderground v.1.15,2013-02-23 13:13:00,
2013-02-23 07:16:00,21.8,19.1,29.96,SSW,201,2.0,3.0,89,0.00,,,0.00,12,Wunderground v.1.15,2013-02-23 13:16:00,
2013-02-23 07:19:00,21.8,19.1,29.96,SSW,201,1.0,3.0,89,0.00,,,0.00,12,Wunderground v.1.15,2013-02-23 13:19:00,
2013-02-23 07:20:00,21.8,19.1,29.96,SSW,201,1.0,1.0,89,0.00,,,0.00,12,Wunderground v.1.15,2013-02-23 13:20:00,
2013-02-23 07:22:00,21.8,19.1,29.96,SSW,200,1.0,3.0,89,0.00,,,0.00,14,Wunderground v.1.15,2013-02-23 13:22:00,
2013-02-23 07:24:00,21.8,18.8,29.96,SSW,200,1.0,3.0,88,0.00,,,0.00,16,Wunderground v.1.15,2013-02-23 13:24:00,
2013-02-23 07:27:00,21.8,18.8,29.96,SSW,200,1.0,4.0,88,0.00,,,0.00,18,Wunderground v.1.15,2013-02-23 13:27:00,
2013-02-23 07:30:00,21.8,18.8,29.96,SSW,200,1.0,2.0,88,0.00,,,0.00,19,Wunderground v.1.15,2013-02-23 13:30:00,
2013-02-23 07:33:00,21.8,18.8,29.96,SSW,200,1.0,2.0,88,0.00,,,0.00,23,Wunderground v.1.15,2013-02-23 13:33:00,
2013-02-23 07:35:00,21.7,18.7,29.97,SSW,200,1.0,2.0,88,0.00,,,0.00,25,Wunderground v.1.15,2013-02-23 13:35:00,
2013-02-23 07:36:00,21.7,18.7,29.96,SSW,200,1.0,2.0,88,0.00,,,0.00,26,Wunderground v.1.15,2013-02-23 13:36:00,
2013-02-23 07:39:00,21.7,18.7,29.96,SSW,200,1.0,2.0,88,0.00,,,0.00,28,Wunderground v.1.15,2013-02-23 13:39:00,
2013-02-23 07:41:00,21.7,18.7,29.96,SSW,201,1.0,3.0,88,0.00,,,0.00,32,Wunderground v.1.15,2013-02-23 13:41:00,
2013-02-23 07:44:00,21.7,18.7,29.96,SSW,201,1.0,3.0,88,0.00,,,0.00,33,Wunderground v.1.15,2013-02-23 13:44:00,
2013-02-23 07:48:00,21.7,18.7,29.96,SSW,198,2.0,4.0,88,0.00,,,0.00,39,Wunderground v.1.15,2013-02-23 13:48:00,
2013-02-23 07:49:00,21.7,18.7,29.96,SSW,198,2.0,4.0,88,0.00,,,0.00,42,Wunderground v.1.15,2013-02-23 13:49:00,
2013-02-23 07:50:00,21.8,18.8,29.96,SSW,198,2.0,2.0,88,0.00,,,0.00,42,Wunderground v.1.15,2013-02-23 13:50:00,
2013-02-23 07:51:00,21.8,18.8,29.96,SSW,198,1.0,2.0,88,0.00,,,0.00,42,Wunderground v.1.15,2013-02-23 13:51:00,
2013-02-23 07:54:00,21.8,18.8,29.96,SSW,198,1.0,2.0,88,0.00,,,0.00,44,Wunderground v.1.15,2013-02-23 13:54:00,
2013-02-23 07:56:00,21.8,18.8,29.96,SSW,198,2.0,3.0,88,0.00,,,0.00,44,Wunderground v.1.15,2013-02-23 13:56:00,
2013-02-23 07:57:00,21.8,18.8,29.96,SSW,198,2.0,5.0,88,0.00,,,0.00,46,Wunderground v.1.15,2013-02-23 13:57:00,
2013-02-23 07:58:00,21.8,18.8,29.96,SSW,198,2.0,5.0,88,0.00,,,0.00,46,Wunderground v.1.15,2013-02-23 13:58:00,
2013-02-23 08:01:00,21.8,18.8,29.96,South,173,2.0,4.0,88,0.00,,,0.00,49,Wunderground v.1.15,2013-02-23 14:01:00,
2013-02-23 08:03:00,21.8,18.8,29.96,SSW,198,2.0,4.0,88,0.00,,,0.00,54,Wunderground v.1.15,2013-02-23 14:03:00,
2013-02-23 08:04:00,21.8,18.8,29.96,SSW,198,2.0,4.0,88,0.00,,,0.00,54,Wunderground v.1.15,2013-02-23 14:04:00,
2013-02-23 08:09:00,21.9,18.9,29.96,SSW,203,2.0,4.0,88,0.00,,,0.00,70,Wunderground v.1.15,2013-02-23 14:09:00,
2013-02-23 08:10:00,21.9,18.9,29.96,WSW,250,2.0,2.0,88,0.00,,,0.00,72,Wunderground v.1.15,2013-02-23 14:10:00,
2013-02-23 08:15:00,21.9,18.9,29.96,SW,223,2.0,4.0,88,0.00,,,0.00,81,Wunderground v.1.15,2013-02-23 14:15:00,
2013-02-23 08:16:00,21.9,18.9,29.96,SW,233,2.0,4.0,88,0.00,,,0.00,83,Wunderground v.1.15,2013-02-23 14:16:00,
2013-02-23 08:17:00,21.9,18.9,29.96,SW,233,2.0,6.0,88,0.00,,,0.00,83,Wunderground v.1.15,2013-02-23 14:17:00,
2013-02-23 08:18:00,22.0,19.0,29.96,SW,219,3.0,6.0,88,0.00,,,0.00,84,Wunderground v.1.15,2013-02-23 14:18:00,
2013-02-23 08:22:00,22.0,19.0,29.96,South,171,3.0,3.0,88,0.00,,,0.00,93,Wunderground v.1.15,2013-02-23 14:22:00,
2013-02-23 08:23:00,22.0,19.0,29.96,South,171,3.0,3.0,88,0.00,,,0.00,98,Wunderground v.1.15,2013-02-23 14:23:00,
2013-02-23 08:25:00,22.1,19.1,29.96,South,171,2.0,3.0,88,0.00,,,0.00,105,Wunderground v.1.15,2013-02-23 14:25:00,
2013-02-23 08:28:00,22.1,19.1,29.96,South,171,1.0,3.0,88,0.00,,,0.00,114,Wunderground v.1.15,2013-02-23 14:28:00,
2013-02-23 08:31:00,22.2,19.2,29.97,SW,221,1.0,4.0,88,0.00,,,0.00,125,Wunderground v.1.15,2013-02-23 14:31:00,
2013-02-23 08:33:00,22.2,19.2,29.96,SW,226,2.0,4.0,88,0.00,,,0.00,135,Wunderground v.1.15,2013-02-23 14:33:00,
2013-02-23 08:34:00,22.2,18.9,29.96,SW,226,2.0,4.0,87,0.00,,,0.00,137,Wunderground v.1.15,2013-02-23 14:34:00,
2013-02-23 08:35:00,22.2,18.9,29.96,SW,226,2.0,4.0,87,0.00,,,0.00,139,Wunderground v.1.15,2013-02-23 14:35:00,
2013-02-23 08:36:00,22.2,18.9,29.96,SW,226,2.0,4.0,87,0.00,,,0.00,141,Wunderground v.1.15,2013-02-23 14:36:00,
2013-02-23 08:39:00,22.4,19.1,29.96,SW,226,2.0,4.0,87,0.00,,,0.00,151,Wunderground v.1.15,2013-02-23 14:39:00,
2013-02-23 08:42:00,22.4,19.1,29.96,SW,229,1.0,2.0,87,0.00,,,0.00,160,Wunderground v.1.15,2013-02-23 14:42:00,
2013-02-23 08:43:00,22.5,19.2,29.96,SW,222,1.0,3.0,87,0.00,,,0.00,167,Wunderground v.1.15,2013-02-23 14:43:00,
2013-02-23 08:47:00,22.6,19.3,29.96,SW,229,2.0,5.0,87,0.00,,,0.00,174,Wunderground v.1.15,2013-02-23 14:47:00,
2013-02-23 08:48:00,22.6,19.3,29.96,SW,231,3.0,5.0,87,0.00,,,0.00,165,Wunderground v.1.15,2013-02-23 14:48:00,
2013-02-23 08:50:00,22.6,19.3,29.96,SW,231,3.0,3.0,87,0.00,,,0.00,169,Wunderground v.1.15,2013-02-23 14:50:00,
2013-02-23 08:51:00,22.6,19.3,29.96,SW,228,3.0,4.0,87,0.00,,,0.00,169,Wunderground v.1.15,2013-02-23 14:51:00,
2013-02-23 08:56:00,22.7,19.1,29.96,SW,219,2.0,4.0,86,0.00,,,0.00,197,Wunderground v.1.15,2013-02-23 14:56:00,
2013-02-23 08:57:00,22.7,19.1,29.96,SSW,210,2.0,4.0,86,0.00,,,0.00,197,Wunderground v.1.15,2013-02-23 14:57:00,
2013-02-23 09:02:00,22.9,19.3,29.96,SSW,210,2.0,5.0,86,0.00,,,0.00,137,Wunderground v.1.15,2013-02-23 15:02:00,
2013-02-23 09:03:00,22.9,19.3,29.96,SW,215,2.0,5.0,86,0.00,,,0.00,139,Wunderground v.1.15,2013-02-23 15:03:00,
2013-02-23 09:07:00,22.8,19.2,29.96,SW,220,3.0,5.0,86,0.00,,,0.00,223,Wunderground v.1.15,2013-02-23 15:07:00,
2013-02-23 09:08:00,22.9,19.3,29.96,SW,220,3.0,5.0,86,0.00,,,0.00,237,Wunderground v.1.15,2013-02-23 15:08:00,
2013-02-23 09:09:00,22.9,19.3,29.96,SW,220,4.0,5.0,86,0.00,,,0.00,223,Wunderground v.1.15,2013-02-23 15:09:00,
2013-02-23 09:15:00,23.0,19.2,29.96,SW,225,4.0,6.0,85,0.00,,,0.00,236,Wunderground v.1.15,2013-02-23 15:15:00,
2013-02-23 09:16:00,23.0,19.2,29.96,WSW,240,4.0,6.0,85,0.00,,,0.00,225,Wunderground v.1.15,2013-02-23 15:16:00,
2013-02-23 09:17:00,23.0,19.2,29.96,SW,221,4.0,6.0,85,0.00,,,0.00,218,Wunderground v.1.15,2013-02-23 15:17:00,
2013-02-23 09:20:00,23.0,19.2,29.96,WSW,237,4.0,4.0,85,0.00,,,0.00,246,Wunderground v.1.15,2013-02-23 15:20:00,
2013-02-23 09:21:00,23.0,21.0,29.96,SW,226,5.0,5.0,92,0.00,,,0.00,250,Wunderground v.1.15,2013-02-23 15:21:00,
2013-02-23 09:22:00,23.1,19.3,29.96,WSW,255,5.0,5.0,85,0.00,,,0.00,285,Wunderground v.1.15,2013-02-23 15:22:00,
2013-02-23 09:26:00,23.2,19.4,29.96,SW,214,5.0,7.0,85,0.00,,,0.00,241,Wunderground v.1.15,2013-02-23 15:26:00,
2013-02-23 09:27:00,23.3,19.2,29.96,SW,230,5.0,7.0,84,0.00,,,0.00,237,Wunderground v.1.15,2013-02-23 15:27:00,
2013-02-23 09:29:00,23.3,19.2,29.96,WSW,244,5.0,8.0,84,0.00,,,0.00,225,Wunderground v.1.15,2013-02-23 15:29:00,
2013-02-23 09:31:00,23.3,19.2,29.96,SW,217,5.0,6.0,84,0.00,,,0.00,211,Wunderground v.1.15,2013-02-23 15:31:00,
2013-02-23 09:34:00,23.3,19.2,29.96,WSW,246,5.0,6.0,84,0.00,,,0.00,230,Wunderground v.1.15,2013-02-23 15:34:00,
2013-02-23 09:35:00,23.3,19.2,29.96,West,271,5.0,6.0,84,0.00,,,0.00,251,Wunderground v.1.15,2013-02-23 15:35:00,
2013-02-23 09:37:00,23.4,19.6,29.96,WNW,303,4.0,6.0,85,0.00,,,0.00,243,Wunderground v.1.15,2013-02-23 15:37:00,
2013-02-23 09:39:00,23.5,19.4,29.96,WSW,247,4.0,6.0,84,0.00,,,0.00,239,Wunderground v.1.15,2013-02-23 15:39:00,
2013-02-23 09:40:00,23.5,19.4,29.96,WNW,302,3.0,4.0,84,0.00,,,0.00,232,Wunderground v.1.15,2013-02-23 15:40:00,
2013-02-23 09:43:00,23.6,19.5,29.96,WSW,244,3.0,8.0,84,0.00,,,0.00,223,Wunderground v.1.15,2013-02-23 15:43:00,
2013-02-23 09:45:00,23.6,19.5,29.96,WNW,286,3.0,8.0,84,0.00,,,0.00,206,Wunderground v.1.15,2013-02-23 15:45:00,
2013-02-23 09:46:00,23.6,19.5,29.96,West,269,2.0,8.0,84,0.00,,,0.00,229,Wunderground v.1.15,2013-02-23 15:46:00,
2013-02-23 09:49:00,23.5,19.4,29.96,WSW,249,2.0,8.0,84,0.00,,,0.00,353,Wunderground v.1.15,2013-02-23 15:49:00,
2013-02-23 09:50:00,23.6,19.5,29.96,WSW,249,2.0,2.0,84,0.00,,,0.00,353,Wunderground v.1.15,2013-02-23 15:50:00,
2013-02-23 09:51:00,23.7,19.6,29.96,SW,229,2.0,6.0,84,0.00,,,0.00,353,Wunderground v.1.15,2013-02-23 15:51:00,
2013-02-23 09:52:00,23.6,19.5,29.96,SW,226,2.0,6.0,84,0.00,,,0.00,223,Wunderground v.1.15,2013-02-23 15:52:00,
2013-02-23 09:55:00,23.6,19.2,29.96,SW,235,3.0,6.0,83,0.00,,,0.00,244,Wunderground v.1.15,2013-02-23 15:55:00,
2013-02-23 09:56:00,23.6,19.2,29.96,WSW,244,3.0,6.0,83,0.00,,,0.00,267,Wunderground v.1.15,2013-02-23 15:56:00,
2013-02-23 09:57:00,23.6,19.2,29.96,SW,225,3.0,6.0,83,0.00,,,0.00,197,Wunderground v.1.15,2013-02-23 15:57:00,
2013-02-23 09:59:00,23.5,19.1,29.96,SW,229,4.0,7.0,83,0.00,,,0.00,206,Wunderground v.1.15,2013-02-23 15:59:00,
2013-02-23 10:00:00,23.4,19.0,29.96,SW,233,4.0,9.0,83,0.00,,,0.00,250,Wunderground v.1.15,2013-02-23 16:00:00,
2013-02-23 10:04:00,23.3,18.9,29.96,SW,227,4.0,9.0,83,0.00,,,0.00,264,Wunderground v.1.15,2013-02-23 16:04:00,
2013-02-23 10:05:00,23.4,19.3,29.96,SW,233,4.0,9.0,84,0.00,,,0.00,264,Wunderground v.1.15,2013-02-23 16:05:00,
2013-02-23 10:07:00,23.5,19.4,29.97,West,281,4.0,9.0,84,0.00,,,0.00,248,Wunderground v.1.15,2013-02-23 16:07:00,
2013-02-23 10:09:00,23.6,19.5,29.96,WNW,288,4.0,9.0,84,0.00,,,0.00,265,Wunderground v.1.15,2013-02-23 16:09:00,
2013-02-23 10:13:00,23.8,19.7,29.96,WSW,242,4.0,4.0,84,0.00,,,0.00,294,Wunderground v.1.15,2013-02-23 16:13:00,
2013-02-23 10:14:00,23.8,19.4,29.96,SW,232,4.0,4.0,83,0.00,,,0.00,292,Wunderground v.1.15,2013-02-23 16:14:00,
2013-02-23 10:18:00,23.8,19.4,29.96,SW,236,5.0,9.0,83,0.00,,,0.00,323,Wunderground v.1.15,2013-02-23 16:18:00,
2013-02-23 10:21:00,23.9,19.5,29.96,SW,223,5.0,9.0,83,0.00,,,0.00,297,Wunderground v.1.15,2013-02-23 16:21:00,
2013-02-23 10:22:00,23.9,19.5,29.97,WSW,243,5.0,9.0,83,0.00,,,0.00,271,Wunderground v.1.15,2013-02-23 16:22:00,
2013-02-23 10:25:00,23.9,19.5,29.96,SW,227,6.0,9.0,83,0.00,,,0.00,297,Wunderground v.1.15,2013-02-23 16:25:00,
2013-02-23 10:27:00,23.9,19.5,29.96,WSW,240,5.0,9.0,83,0.00,,,0.00,311,Wunderground v.1.15,2013-02-23 16:27:00,
2013-02-23 10:30:00,24.0,19.6,29.96,SW,227,5.0,6.0,83,0.00,,,0.00,345,Wunderground v.1.15,2013-02-23 16:30:00,
2013-02-23 10:31:00,24.0,19.6,29.96,WSW,242,5.0,6.0,83,0.00,,,0.00,380,Wunderground v.1.15,2013-02-23 16:31:00,
2013-02-23 10:33:00,24.2,19.8,29.96,West,272,5.0,6.0,83,0.00,,,0.00,357,Wunderground v.1.15,2013-02-23 16:33:00,
2013-02-23 10:38:00,24.1,19.4,29.96,SW,223,5.0,6.0,82,0.00,,,0.00,294,Wunderground v.1.15,2013-02-23 16:38:00,
2013-02-23 10:41:00,24.2,19.5,29.96,WSW,240,5.0,5.0,82,0.00,,,0.00,424,Wunderground v.1.15,2013-02-23 16:41:00,
2013-02-23 10:44:00,24.3,19.6,29.97,SW,234,5.0,7.0,82,0.00,,,0.00,251,Wunderground v.1.15,2013-02-23 16:44:00,
2013-02-23 10:45:00,24.3,19.6,29.97,WSW,239,5.0,7.0,82,0.00,,,0.00,251,Wunderground v.1.15,2013-02-23 16:45:00,
2013-02-23 10:49:00,24.4,19.4,29.97,SW,231,5.0,7.0,81,0.00,,,0.00,251,Wunderground v.1.15,2013-02-23 16:49:00,
2013-02-23 10:50:00,24.4,19.4,29.96,WSW,241,5.0,5.0,81,0.00,,,0.00,251,Wunderground v.1.15,2013-02-23 16:50:00,
2013-02-23 10:51:00,24.5,19.5,29.96,WSW,240,5.0,5.0,81,0.00,,,0.00,434,Wunderground v.1.15,2013-02-23 16:51:00,
2013-02-23 10:55:00,25.0,20.0,29.97,SW,231,4.0,6.0,81,0.00,,,0.00,671,Wunderground v.1.15,2013-02-23 16:55:00,
2013-02-23 10:56:00,25.0,20.0,29.96,SW,236,4.0,6.0,81,0.00,,,0.00,352,Wunderground v.1.15,2013-02-23 16:56:00,
2013-02-23 10:57:00,25.0,20.0,29.97,SW,229,4.0,6.0,81,0.00,,,0.00,408,Wunderground v.1.15,2013-02-23 16:57:00,
2013-02-23 10:58:00,25.0,20.0,29.96,WSW,237,5.0,6.0,81,0.00,,,0.00,408,Wunderground v.1.15,2013-02-23 16:58:00,
2013-02-23 11:00:00,25.1,19.8,29.96,SW,227,5.0,6.0,80,0.00,,,0.00,478,Wunderground v.1.15,2013-02-23 17:00:00,
2013-02-23 11:01:00,25.2,19.9,29.96,SW,223,6.0,6.0,80,0.00,,,0.00,478,Wunderground v.1.15,2013-02-23 17:01:00,
2013-02-23 11:04:00,25.6,20.3,29.97,South,180,6.0,7.0,80,0.00,,,0.00,837,Wunderground v.1.15,2013-02-23 17:04:00,
2013-02-23 11:06:00,25.5,19.9,29.97,SW,231,6.0,7.0,79,0.00,,,0.00,527,Wunderground v.1.15,2013-02-23 17:06:00,
2013-02-23 11:09:00,25.4,19.8,29.97,NW,309,5.0,7.0,79,0.00,,,0.00,476,Wunderground v.1.15,2013-02-23 17:09:00,
2013-02-23 11:11:00,25.6,20.3,29.97,WSW,254,5.0,5.0,80,0.00,,,0.00,476,Wunderground v.1.15,2013-02-23 17:11:00,
2013-02-23 11:12:00,25.8,20.5,29.97,SW,236,4.0,5.0,80,0.00,,,0.00,476,Wunderground v.1.15,2013-02-23 17:12:00,
2013-02-23 11:17:00,26.0,20.1,29.96,SW,225,3.0,5.0,78,0.00,,,0.00,721,Wunderground v.1.15,2013-02-23 17:17:00,
2013-02-23 11:18:00,26.0,20.4,29.96,SW,230,3.0,6.0,79,0.00,,,0.00,830,Wunderground v.1.15,2013-02-23 17:18:00,
2013-02-23 11:24:00,25.6,20.0,29.96,SW,223,5.0,7.0,79,0.00,,,0.00,828,Wunderground v.1.15,2013-02-23 17:24:00,
2013-02-23 11:25:00,25.8,20.2,29.96,SW,236,5.0,7.0,79,0.00,,,0.00,830,Wunderground v.1.15,2013-02-23 17:25:00,
2013-02-23 11:26:00,25.9,20.3,29.96,WSW,238,5.0,7.0,79,0.00,,,0.00,809,Wunderground v.1.15,2013-02-23 17:26:00,
2013-02-23 11:28:00,26.2,20.3,29.96,WSW,240,5.0,7.0,78,0.00,,,0.00,780,Wunderground v.1.15,2013-02-23 17:28:00,
2013-02-23 11:31:00,26.3,20.4,29.96,WSW,249,5.0,8.0,78,0.00,,,0.00,682,Wunderground v.1.15,2013-02-23 17:31:00,
2013-02-23 11:34:00,26.3,20.1,29.96,SW,216,6.0,8.0,77,0.00,,,0.00,698,Wunderground v.1.15,2013-02-23 17:34:00,
2013-02-23 11:36:00,26.2,20.0,29.96,SW,222,6.0,8.0,77,0.00,,,0.00,360,Wunderground v.1.15,2013-02-23 17:36:00,
2013-02-23 11:37:00,26.2,20.0,29.96,SW,225,6.0,8.0,77,0.00,,,0.00,360,Wunderground v.1.15,2013-02-23 17:37:00,
2013-02-23 11:38:00,26.1,19.9,29.96,WSW,243,6.0,8.0,77,0.00,,,0.00,360,Wunderground v.1.15,2013-02-23 17:38:00,
2013-02-23 11:41:00,26.2,20.0,29.96,SW,235,6.0,9.0,77,0.00,,,0.00,673,Wunderground v.1.15,2013-02-23 17:41:00,
2013-02-23 11:46:00,26.8,20.6,29.96,West,276,5.0,9.0,77,0.00,,,0.00,659,Wunderground v.1.15,2013-02-23 17:46:00,
2013-02-23 11:47:00,27.0,20.7,29.96,West,273,5.0,9.0,77,0.00,,,0.00,643,Wunderground v.1.15,2013-02-23 17:47:00,
2013-02-23 11:49:00,27.0,20.4,29.96,WSW,254,5.0,9.0,76,0.00,,,0.00,696,Wunderground v.1.15,2013-02-23 17:49:00,
2013-02-23 11:50:00,26.9,20.3,29.96,SSW,205,5.0,6.0,76,0.00,,,0.00,705,Wunderground v.1.15,2013-02-23 17:50:00,
2013-02-23 11:52:00,26.9,20.3,29.96,SW,231,6.0,12.0,76,0.00,,,0.00,724,Wunderground v.1.15,2013-02-23 17:52:00,
2013-02-23 11:55:00,26.8,20.2,29.96,SW,229,6.0,12.0,76,0.00,,,0.00,763,Wunderground v.1.15,2013-02-23 17:55:00,
2013-02-23 11:56:00,26.9,20.3,29.96,WSW,254,6.0,12.0,76,0.00,,,0.00,796,Wunderground v.1.15,2013-02-23 17:56:00,
2013-02-23 11:58:00,27.2,20.6,29.96,SW,218,6.0,12.0,76,0.00,,,0.00,856,Wunderground v.1.15,2013-02-23 17:58:00,
2013-02-23 12:00:00,27.3,20.7,29.96,WSW,242,6.0,10.0,76,0.00,,,0.00,856,Wunderground v.1.15,2013-02-23 18:00:00,
2013-02-23 12:01:00,27.2,20.6,29.96,SW,227,6.0,10.0,76,0.00,,,0.00,905,Wunderground v.1.15,2013-02-23 18:01:00,
2013-02-23 12:04:00,26.9,20.0,29.96,SW,225,6.0,10.0,75,0.00,,,0.00,489,Wunderground v.1.15,2013-02-23 18:04:00,
2013-02-23 12:06:00,26.9,20.3,29.96,WSW,238,7.0,10.0,76,0.00,,,0.00,489,Wunderground v.1.15,2013-02-23 18:06:00,
2013-02-23 12:07:00,26.8,20.2,29.96,SW,225,7.0,10.0,76,0.00,,,0.00,489,Wunderground v.1.15,2013-02-23 18:07:00,
2013-02-23 12:10:00,26.6,19.7,29.96,SW,215,7.0,7.0,75,0.00,,,0.00,765,Wunderground v.1.15,2013-02-23 18:10:00,
2013-02-23 12:13:00,26.8,20.2,29.96,SW,225,6.0,7.0,76,0.00,,,0.00,861,Wunderground v.1.15,2013-02-23 18:13:00,
2013-02-23 12:15:00,27.2,20.6,29.96,SW,236,6.0,9.0,76,0.00,,,0.00,861,Wunderground v.1.15,2013-02-23 18:15:00,
2013-02-23 12:16:00,27.4,20.8,29.96,SW,217,6.0,9.0,76,0.00,,,0.00,907,Wunderground v.1.15,2013-02-23 18:16:00,
2013-02-23 12:20:00,27.2,20.0,29.96,SW,217,6.0,6.0,74,0.00,,,0.00,357,Wunderground v.1.15,2013-02-23 18:20:00,
2013-02-23 12:21:00,27.0,19.8,29.96,SW,230,6.0,7.0,74,0.00,,,0.00,411,Wunderground v.1.15,2013-02-23 18:21:00,
2013-02-23 12:22:00,27.0,20.1,29.96,SSW,206,6.0,7.0,75,0.00,,,0.00,418,Wunderground v.1.15,2013-02-23 18:22:00,
2013-02-23 12:25:00,26.9,20.0,29.96,SW,231,6.0,7.0,75,0.00,,,0.00,431,Wunderground v.1.15,2013-02-23 18:25:00,
2013-02-23 12:30:00,27.0,20.4,29.96,SW,232,6.0,6.0,76,0.00,,,0.00,308,Wunderground v.1.15,2013-02-23 18:30:00,
2013-02-23 12:31:00,27.0,20.4,29.95,SW,230,5.0,6.0,76,0.00,,,0.00,325,Wunderground v.1.15,2013-02-23 18:31:00,
2013-02-23 12:33:00,27.1,20.2,29.95,SW,230,4.0,6.0,75,0.00,,,0.00,357,Wunderground v.1.15,2013-02-23 18:33:00,
2013-02-23 12:34:00,27.1,20.2,29.95,SW,230,4.0,6.0,75,0.00,,,0.00,364,Wunderground v.1.15,2013-02-23 18:34:00,
2013-02-23 12:36:00,27.1,20.2,29.95,SW,229,4.0,7.0,75,0.00,,,0.00,434,Wunderground v.1.15,2013-02-23 18:36:00,
2013-02-23 12:40:00,27.1,19.9,29.95,SW,223,4.0,4.0,74,0.00,,,0.00,387,Wunderground v.1.15,2013-02-23 18:40:00,
2013-02-23 12:41:00,27.2,20.0,29.95,WSW,248,4.0,5.0,74,0.00,,,0.00,826,Wunderground v.1.15,2013-02-23 18:41:00,
2013-02-23 12:42:00,27.4,20.2,29.95,SW,221,5.0,7.0,74,0.00,,,0.00,846,Wunderground v.1.15,2013-02-23 18:42:00,
2013-02-23 12:45:00,28.1,21.2,29.95,SSW,205,5.0,7.0,75,0.00,,,0.00,865,Wunderground v.1.15,2013-02-23 18:45:00,
2013-02-23 12:47:00,28.2,21.0,29.95,SSW,211,5.0,10.0,74,0.00,,,0.00,895,Wunderground v.1.15,2013-02-23 18:47:00,
2013-02-23 12:48:00,28.1,20.6,29.95,SW,217,5.0,10.0,73,0.00,,,0.00,895,Wunderground v.1.15,2013-02-23 18:48:00,
2013-02-23 12:50:00,27.9,20.4,29.95,WSW,255,6.0,6.0,73,0.00,,,0.00,390,Wunderground v.1.15,2013-02-23 18:50:00,
2013-02-23 12:53:00,27.8,20.6,29.95,NNW,336,5.0,6.0,74,0.00,,,0.00,427,Wunderground v.1.15,2013-02-23 18:53:00,
2013-02-23 12:55:00,28.0,20.8,29.95,SW,230,5.0,6.0,74,0.00,,,0.00,490,Wunderground v.1.15,2013-02-23 18:55:00,
2013-02-23 12:56:00,28.1,20.6,29.95,SW,222,5.0,6.0,73,0.00,,,0.00,490,Wunderground v.1.15,2013-02-23 18:56:00,
2013-02-23 12:58:00,28.2,21.0,29.95,NNW,342,4.0,6.0,74,0.00,,,0.00,443,Wunderground v.1.15,2013-02-23 18:58:00,
2013-02-23 12:59:00,28.5,21.3,29.95,NNW,339,3.0,6.0,74,0.00,,,0.00,795,Wunderground v.1.15,2013-02-23 18:59:00,
2013-02-23 13:00:00,28.8,21.6,29.95,SSW,207,3.0,7.0,74,0.00,,,0.00,882,Wunderground v.1.15,2013-02-23 19:00:00,
2013-02-23 13:05:00,29.0,20.8,29.95,WSW,247,4.0,8.0,71,0.00,,,0.00,853,Wunderground v.1.15,2013-02-23 19:05:00,
2013-02-23 13:06:00,28.9,20.7,29.95,South,190,4.0,8.0,71,0.00,,,0.00,853,Wunderground v.1.15,2013-02-23 19:06:00,
2013-02-23 13:07:00,28.8,20.2,29.95,South,190,4.0,8.0,70,0.00,,,0.00,853,Wunderground v.1.15,2013-02-23 19:07:00,
2013-02-23 13:11:00,28.1,20.2,29.95,SW,233,5.0,6.0,72,0.00,,,0.00,410,Wunderground v.1.15,2013-02-23 19:11:00,
2013-02-23 13:13:00,28.0,20.1,29.95,SW,220,5.0,7.0,72,0.00,,,0.00,524,Wunderground v.1.15,2013-02-23 19:13:00,
2013-02-23 13:14:00,28.0,19.8,29.95,West,278,6.0,7.0,71,0.00,,,0.00,436,Wunderground v.1.15,2013-02-23 19:14:00,
2013-02-23 13:15:00,28.0,20.1,29.95,WSW,240,5.0,7.0,72,0.00,,,0.00,436,Wunderground v.1.15,2013-02-23 19:15:00,
2013-02-23 13:19:00,28.3,20.4,29.95,SW,218,5.0,7.0,72,0.00,,,0.00,413,Wunderground v.1.15,2013-02-23 19:19:00,
2013-02-23 13:21:00,28.3,20.4,29.95,SW,227,5.0,7.0,72,0.00,,,0.00,457,Wunderground v.1.15,2013-02-23 19:21:00,
2013-02-23 13:25:00,28.4,21.8,29.94,SW,224,4.0,7.0,76,0.00,,,0.00,352,Wunderground v.1.15,2013-02-23 19:25:00,
2013-02-23 13:26:00,28.3,20.1,29.94,West,277,4.0,7.0,71,0.00,,,0.00,341,Wunderground v.1.15,2013-02-23 19:26:00,
2013-02-23 13:27:00,28.5,20.3,29.94,SW,217,4.0,7.0,71,0.00,,,0.00,636,Wunderground v.1.15,2013-02-23 19:27:00,
2013-02-23 13:28:00,28.6,20.4,29.94,SW,224,4.0,8.0,71,0.00,,,0.00,624,Wunderground v.1.15,2013-02-23 19:28:00,
2013-02-23 13:30:00,28.5,20.0,29.95,SW,216,4.0,9.0,70,0.00,,,0.00,640,Wunderground v.1.15,2013-02-23 19:30:00,
2013-02-23 13:32:00,28.5,20.3,29.94,SW,232,5.0,9.0,71,0.00,,,0.00,640,Wunderground v.1.15,2013-02-23 19:32:00,
2013-02-23 13:33:00,28.5,20.3,29.94,NW,309,5.0,9.0,71,0.00,,,0.00,640,Wunderground v.1.15,2013-02-23 19:33:00,
2013-02-23 13:38:00,29.0,20.4,29.94,WSW,248,5.0,9.0,70,0.00,,,0.00,612,Wunderground v.1.15,2013-02-23 19:38:00,
2013-02-23 13:41:00,28.9,20.0,29.94,SSW,195,5.0,7.0,69,0.00,,,0.00,693,Wunderground v.1.15,2013-02-23 19:41:00,
2013-02-23 13:43:00,29.2,20.6,29.94,SW,229,5.0,7.0,70,0.00,,,0.00,445,Wunderground v.1.15,2013-02-23 19:43:00,
2013-02-23 13:44:00,29.0,20.1,29.94,SSW,212,5.0,7.0,69,0.00,,,0.00,445,Wunderground v.1.15,2013-02-23 19:44:00,
2013-02-23 13:45:00,28.9,19.7,29.94,SSW,209,5.0,7.0,68,0.00,,,0.00,445,Wunderground v.1.15,2013-02-23 19:45:00,
2013-02-23 13:47:00,28.8,19.9,29.94,WSW,238,6.0,8.0,69,0.00,,,0.00,494,Wunderground v.1.15,2013-02-23 19:47:00,
2013-02-23 13:49:00,28.8,19.9,29.94,WSW,256,6.0,8.0,69,0.00,,,0.00,721,Wunderground v.1.15,2013-02-23 19:49:00,
2013-02-23 13:52:00,28.9,20.0,29.94,SW,227,7.0,7.0,69,0.00,,,0.00,425,Wunderground v.1.15,2013-02-23 19:52:00,
2013-02-23 13:53:00,28.8,19.9,29.94,SW,234,6.0,7.0,69,0.00,,,0.00,446,Wunderground v.1.15,2013-02-23 19:53:00,
2013-02-23 13:54:00,28.8,19.9,29.94,WSW,251,6.0,8.0,69,0.00,,,0.00,527,Wunderground v.1.15,2013-02-23 19:54:00,
2013-02-23 13:55:00,28.7,19.8,29.94,SW,215,6.0,8.0,69,0.00,,,0.00,527,Wunderground v.1.15,2013-02-23 19:55:00,
2013-02-23 13:59:00,28.8,19.9,29.94,SW,236,6.0,8.0,69,0.00,,,0.00,538,Wunderground v.1.15,2013-02-23 19:59:00,
2013-02-23 14:00:00,28.8,19.9,29.94,SW,218,6.0,6.0,69,0.00,,,0.00,469,Wunderground v.1.15,2013-02-23 20:00:00,
2013-02-23 14:04:00,28.8,19.9,29.94,SSW,196,7.0,9.0,69,0.00,,,0.00,309,Wunderground v.1.15,2013-02-23 20:04:00,
2013-02-23 14:05:00,28.8,19.6,29.94,SW,219,6.0,9.0,68,0.00,,,0.00,295,Wunderground v.1.15,2013-02-23 20:05:00,
2013-02-23 14:07:00,28.7,19.8,29.94,SSW,209,6.0,9.0,69,0.00,,,0.00,262,Wunderground v.1.15,2013-02-23 20:07:00,
2013-02-23 14:10:00,28.7,20.1,29.94,WSW,241,6.0,7.0,70,0.00,,,0.00,230,Wunderground v.1.15,2013-02-23 20:10:00,
2013-02-23 14:11:00,28.7,20.1,29.94,SW,223,6.0,7.0,70,0.00,,,0.00,223,Wunderground v.1.15,2013-02-23 20:11:00,
2013-02-23 14:12:00,28.6,19.7,29.94,SW,221,6.0,7.0,69,0.00,,,0.00,218,Wunderground v.1.15,2013-02-23 20:12:00,
2013-02-23 14:13:00,28.5,19.6,29.94,SW,223,6.0,8.0,69,0.00,,,0.00,214,Wunderground v.1.15,2013-02-23 20:13:00,
2013-02-23 14:18:00,28.5,19.6,29.94,SW,235,6.0,9.0,69,0.00,,,0.00,186,Wunderground v.1.15,2013-02-23 20:18:00,
2013-02-23 14:20:00,28.4,19.5,29.94,SW,217,6.0,6.0,69,0.00,,,0.00,179,Wunderground v.1.15,2013-02-23 20:20:00,
2013-02-23 14:24:00,28.4,19.9,29.94,SW,227,6.0,6.0,70,0.00,,,0.00,165,Wunderground v.1.15,2013-02-23 20:24:00,
2013-02-23 14:25:00,28.4,19.5,29.94,SSW,213,6.0,6.0,69,0.00,,,0.00,165,Wunderground v.1.15,2013-02-23 20:25:00,
2013-02-23 14:28:00,28.4,19.9,29.94,SW,216,5.0,6.0,70,0.00,,,0.00,172,Wunderground v.1.15,2013-02-23 20:28:00,
2013-02-23 14:29:00,28.4,19.9,29.94,SW,215,5.0,6.0,70,0.00,,,0.00,174,Wunderground v.1.15,2013-02-23 20:29:00,
2013-02-23 14:30:00,28.4,19.9,29.94,SW,217,5.0,5.0,70,0.00,,,0.00,179,Wunderground v.1.15,2013-02-23 20:30:00,
2013-02-23 14:34:00,28.4,19.9,29.94,WSW,240,4.0,5.0,70,0.00,,,0.00,186,Wunderground v.1.15,2013-02-23 20:34:00,
2013-02-23 14:37:00,28.4,19.5,29.94,SW,232,4.0,6.0,69,0.00,,,0.00,151,Wunderground v.1.15,2013-02-23 20:37:00,
2013-02-23 14:39:00,28.5,19.6,29.94,SW,221,4.0,6.0,69,0.00,,,0.00,132,Wunderground v.1.15,2013-02-23 20:39:00,
2013-02-23 14:40:00,28.5,19.6,29.94,SW,221,5.0,5.0,69,0.00,,,0.00,125,Wunderground v.1.15,2013-02-23 20:40:00,
2013-02-23 14:43:00,28.4,19.9,29.94,SSW,206,5.0,8.0,70,0.00,,,0.00,105,Wunderground v.1.15,2013-02-23 20:43:00,
2013-02-23 14:44:00,28.4,19.9,29.94,SSW,206,5.0,8.0,70,0.00,,,0.00,104,Wunderground v.1.15,2013-02-23 20:44:00,
2013-02-23 14:45:00,28.4,19.9,29.94,SSW,210,5.0,8.0,70,0.00,,,0.00,102,Wunderground v.1.15,2013-02-23 20:45:00,
2013-02-23 14:49:00,28.2,19.7,29.95,SSW,195,6.0,9.0,70,0.00,,,0.00,95,Wunderground v.1.15,2013-02-23 20:49:00,
2013-02-23 14:50:00,28.2,20.0,29.95,South,188,5.0,5.0,71,0.00,,,0.00,93,Wunderground v.1.15,2013-02-23 20:50:00,
2013-02-23 14:56:00,28.1,20.2,29.95,SSW,209,5.0,7.0,72,0.00,,,0.00,90,Wunderground v.1.15,2013-02-23 20:56:00,
2013-02-23 14:57:00,28.1,19.9,29.95,SW,232,5.0,7.0,71,0.00,,,0.00,88,Wunderground v.1.15,2013-02-23 20:57:00,
2013-02-23 15:02:00,28.1,19.9,29.95,SW,224,6.0,8.0,71,0.00,,,0.00,90,Wunderground v.1.15,2013-02-23 21:02:00,
2013-02-23 15:05:00,28.1,20.2,29.95,South,177,7.0,8.0,72,0.00,,,0.00,98,Wunderground v.1.15,2013-02-23 21:05:00,
2013-02-23 15:07:00,28.1,19.9,29.95,SSW,207,6.0,8.0,71,0.00,,,0.00,98,Wunderground v.1.15,2013-02-23 21:07:00,
2013-02-23 15:11:00,28.2,20.0,29.95,SW,221,5.0,7.0,71,0.00,,,0.00,109,Wunderground v.1.15,2013-02-23 21:11:00,
2013-02-23 15:14:00,28.1,19.9,29.95,SSW,213,6.0,7.0,71,0.00,,,0.00,107,Wunderground v.1.15,2013-02-23 21:14:00,
2013-02-23 15:16:00,28.1,19.9,29.95,SW,223,6.0,7.0,71,0.00,,,0.00,109,Wunderground v.1.15,2013-02-23 21:16:00,
2013-02-23 15:18:00,28.1,19.9,29.95,SW,229,6.0,7.0,71,0.00,,,0.00,111,Wunderground v.1.15,2013-02-23 21:18:00,
2013-02-23 15:19:00,28.1,19.9,29.95,SW,224,6.0,7.0,71,0.00,,,0.00,109,Wunderground v.1.15,2013-02-23 21:19:00,
2013-02-23 15:20:00,28.2,20.0,29.95,WSW,240,6.0,6.0,71,0.00,,,0.00,107,Wunderground v.1.15,2013-02-23 21:20:00,
2013-02-23 15:24:00,28.1,20.2,29.95,SW,228,4.0,6.0,72,0.00,,,0.00,104,Wunderground v.1.15,2013-02-23 21:24:00,
2013-02-23 15:25:00,28.1,20.2,29.95,WSW,244,4.0,6.0,72,0.00,,,0.00,100,Wunderground v.1.15,2013-02-23 21:25:00,
2013-02-23 15:26:00,28.0,20.1,29.95,SW,231,4.0,6.0,72,0.00,,,0.00,98,Wunderground v.1.15,2013-02-23 21:26:00,
2013-02-23 15:29:00,28.0,20.1,29.95,WSW,238,4.0,7.0,72,0.00,,,0.00,93,Wunderground v.1.15,2013-02-23 21:29:00,
2013-02-23 15:31:00,28.0,20.1,29.95,SSW,206,4.0,8.0,72,0.00,,,0.00,91,Wunderground v.1.15,2013-02-23 21:31:00,
2013-02-23 15:32:00,28.0,20.1,29.95,WSW,238,5.0,8.0,72,0.00,,,0.00,91,Wunderground v.1.15,2013-02-23 21:32:00,
2013-02-23 15:34:00,28.0,20.1,29.95,SSW,204,6.0,9.0,72,0.00,,,0.00,90,Wunderground v.1.15,2013-02-23 21:34:00,
2013-02-23 15:37:00,28.0,20.1,29.95,SSW,207,7.0,9.0,72,0.00,,,0.00,93,Wunderground v.1.15,2013-02-23 21:37:00,
2013-02-23 15:39:00,27.9,20.4,29.95,SW,234,6.0,9.0,73,0.00,,,0.00,98,Wunderground v.1.15,2013-02-23 21:39:00,
2013-02-23 15:44:00,27.8,20.3,29.95,SW,214,5.0,9.0,73,0.00,,,0.00,118,Wunderground v.1.15,2013-02-23 21:44:00,
2013-02-23 15:46:00,27.8,20.3,29.96,SW,218,5.0,9.0,73,0.00,,,0.00,111,Wunderground v.1.15,2013-02-23 21:46:00,
2013-02-23 15:47:00,27.7,20.5,29.96,SSW,196,5.0,9.0,74,0.00,,,0.00,104,Wunderground v.1.15,2013-02-23 21:47:00,
2013-02-23 15:51:00,27.7,20.2,29.96,WSW,244,6.0,6.0,73,0.00,,,0.00,88,Wunderground v.1.15,2013-02-23 21:51:00,
2013-02-23 15:52:00,27.8,20.3,29.96,WSW,240,6.0,6.0,73,0.00,,,0.00,88,Wunderground v.1.15,2013-02-23 21:52:00,
2013-02-23 15:55:00,27.8,20.6,29.96,WSW,244,5.0,6.0,74,0.00,,,0.00,70,Wunderground v.1.15,2013-02-23 21:55:00,
2013-02-23 15:56:00,27.8,20.6,29.96,WSW,244,5.0,6.0,74,0.00,,,0.00,67,Wunderground v.1.15,2013-02-23 21:56:00,
2013-02-23 16:00:00,27.7,20.5,29.96,SW,227,4.0,6.0,74,0.00,,,0.00,60,Wunderground v.1.15,2013-02-23 22:00:00,
2013-02-23 16:01:00,27.7,20.5,29.96,SW,233,4.0,6.0,74,0.00,,,0.00,60,Wunderground v.1.15,2013-02-23 22:01:00,
2013-02-23 16:03:00,27.6,20.4,29.96,WSW,246,4.0,6.0,74,0.00,,,0.00,65,Wunderground v.1.15,2013-02-23 22:03:00,
2013-02-23 16:05:00,27.6,20.7,29.96,WSW,250,4.0,6.0,75,0.00,,,0.00,74,Wunderground v.1.15,2013-02-23 22:05:00,
2013-02-23 16:06:00,27.6,20.4,29.96,SW,229,4.0,7.0,74,0.00,,,0.00,79,Wunderground v.1.15,2013-02-23 22:06:00,
2013-02-23 16:11:00,27.6,20.4,29.96,West,274,4.0,5.0,74,0.00,,,0.00,77,Wunderground v.1.15,2013-02-23 22:11:00,
2013-02-23 16:12:00,27.6,20.4,29.96,SW,219,4.0,5.0,74,0.00,,,0.00,70,Wunderground v.1.15,2013-02-23 22:12:00,
2013-02-23 16:13:00,27.6,20.4,29.96,SW,225,5.0,5.0,74,0.00,,,0.00,65,Wunderground v.1.15,2013-02-23 22:13:00,
2013-02-23 16:15:00,27.6,20.4,29.96,SW,219,5.0,7.0,74,0.00,,,0.00,65,Wunderground v.1.15,2013-02-23 22:15:00,
2013-02-23 16:18:00,27.6,20.4,29.96,WSW,246,5.0,7.0,74,0.00,,,0.00,60,Wunderground v.1.15,2013-02-23 22:18:00,
2013-02-23 16:21:00,27.6,20.7,29.96,West,266,5.0,5.0,75,0.00,,,0.00,53,Wunderground v.1.15,2013-02-23 22:21:00,
2013-02-23 16:23:00,27.6,20.7,29.96,WSW,254,4.0,5.0,75,0.00,,,0.00,47,Wunderground v.1.15,2013-02-23 22:23:00,
2013-02-23 16:25:00,27.6,20.4,29.96,SW,229,4.0,5.0,74,0.00,,,0.00,44,Wunderground v.1.15,2013-02-23 22:25:00,
2013-02-23 16:28:00,27.5,20.6,29.96,WSW,243,4.0,6.0,75,0.00,,,0.00,42,Wunderground v.1.15,2013-02-23 22:28:00,
2013-02-23 16:30:00,27.5,20.6,29.96,SW,216,4.0,5.0,75,0.00,,,0.00,40,Wunderground v.1.15,2013-02-23 22:30:00,
2013-02-23 16:35:00,27.5,20.3,29.96,SW,236,5.0,7.0,74,0.00,,,0.00,42,Wunderground v.1.15,2013-02-23 22:35:00,
2013-02-23 16:36:00,27.5,20.3,29.96,SW,223,5.0,7.0,74,0.00,,,0.00,44,Wunderground v.1.15,2013-02-23 22:36:00,
2013-02-23 16:38:00,27.5,20.3,29.96,West,261,5.0,7.0,74,0.00,,,0.00,46,Wunderground v.1.15,2013-02-23 22:38:00,
2013-02-23 16:39:00,27.5,20.3,29.96,SW,232,5.0,7.0,74,0.00,,,0.00,46,Wunderground v.1.15,2013-02-23 22:39:00,
2013-02-23 16:41:00,27.5,20.3,29.96,SW,223,6.0,7.0,74,0.00,,,0.00,47,Wunderground v.1.15,2013-02-23 22:41:00,
2013-02-23 16:46:00,27.5,20.3,29.96,SW,227,6.0,9.0,74,0.00,,,0.00,51,Wunderground v.1.15,2013-02-23 22:46:00,
2013-02-23 16:48:00,27.5,20.3,29.96,SW,228,6.0,9.0,74,0.00,,,0.00,53,Wunderground v.1.15,2013-02-23 22:48:00,
2013-02-23 16:51:00,27.5,20.3,29.96,SW,231,6.0,6.0,74,0.00,,,0.00,53,Wunderground v.1.15,2013-02-23 22:51:00,
2013-02-23 16:52:00,27.5,20.3,29.96,SW,225,6.0,7.0,74,0.00,,,0.00,51,Wunderground v.1.15,2013-02-23 22:52:00,
2013-02-23 16:53:00,27.5,20.3,29.96,SW,229,6.0,9.0,74,0.00,,,0.00,51,Wunderground v.1.15,2013-02-23 22:53:00,
2013-02-23 16:54:00,27.5,20.3,29.96,SW,215,6.0,9.0,74,0.00,,,0.00,49,Wunderground v.1.15,2013-02-23 22:54:00,
2013-02-23 16:57:00,27.5,20.6,29.97,SW,219,6.0,9.0,75,0.00,,,0.00,47,Wunderground v.1.15,2013-02-23 22:57:00,
2013-02-23 16:59:00,27.5,20.6,29.97,SW,232,6.0,9.0,75,0.00,,,0.00,47,Wunderground v.1.15,2013-02-23 22:59:00,
2013-02-23 17:02:00,27.5,20.6,29.97,West,271,6.0,6.0,75,0.00,,,0.00,42,Wunderground v.1.15,2013-02-23 23:02:00,
2013-02-23 17:03:00,27.5,20.6,29.97,SSW,213,5.0,6.0,75,0.00,,,0.00,35,Wunderground v.1.15,2013-02-23 23:03:00,
2013-02-23 17:05:00,27.4,20.5,29.97,SSW,213,5.0,6.0,75,0.00,,,0.00,28,Wunderground v.1.15,2013-02-23 23:05:00,
2013-02-23 17:07:00,27.4,20.5,29.97,SW,234,5.0,6.0,75,0.00,,,0.00,23,Wunderground v.1.15,2013-02-23 23:07:00,
2013-02-23 17:09:00,27.4,20.5,29.97,SW,229,5.0,6.0,75,0.00,,,0.00,19,Wunderground v.1.15,2013-02-23 23:09:00,
2013-02-23 17:10:00,27.4,20.5,29.97,SW,223,4.0,4.0,75,0.00,,,0.00,18,Wunderground v.1.15,2013-02-23 23:10:00,
2013-02-23 17:12:00,27.4,20.8,29.97,WSW,240,4.0,7.0,76,0.00,,,0.00,12,Wunderground v.1.15,2013-02-23 23:12:00,
2013-02-23 17:14:00,27.3,20.7,29.97,SW,225,4.0,7.0,76,0.00,,,0.00,11,Wunderground v.1.15,2013-02-23 23:14:00,
2013-02-23 17:18:00,27.3,20.4,29.97,WSW,242,5.0,8.0,75,0.00,,,0.00,9,Wunderground v.1.15,2013-02-23 23:18:00,
2013-02-23 17:20:00,27.4,20.5,29.97,SW,214,5.0,6.0,75,0.00,,,0.00,9,Wunderground v.1.15,2013-02-23 23:20:00,
2013-02-23 17:21:00,27.4,20.5,29.97,SSW,213,5.0,6.0,75,0.00,,,0.00,9,Wunderground v.1.15,2013-02-23 23:21:00,
2013-02-23 17:25:00,27.4,20.5,29.97,SSW,213,5.0,6.0,75,0.00,,,0.00,7,Wunderground v.1.15,2013-02-23 23:25:00,
2013-02-23 17:27:00,27.4,20.5,29.97,SW,219,5.0,6.0,75,0.00,,,0.00,7,Wunderground v.1.15,2013-02-23 23:27:00,
2013-02-23 17:30:00,27.4,20.5,29.97,SW,231,4.0,4.0,75,0.00,,,0.00,7,Wunderground v.1.15,2013-02-23 23:30:00,
2013-02-23 17:32:00,27.4,20.5,29.97,SW,231,4.0,4.0,75,0.00,,,0.00,7,Wunderground v.1.15,2013-02-23 23:32:00,
2013-02-23 17:34:00,27.4,20.5,29.97,SW,231,4.0,4.0,75,0.00,,,0.00,5,Wunderground v.1.15,2013-02-23 23:34:00,
2013-02-23 17:37:00,27.4,20.5,29.97,SW,231,3.0,4.0,75,0.00,,,0.00,5,Wunderground v.1.15,2013-02-23 23:37:00,
2013-02-23 17:38:00,27.4,20.8,29.97,SW,231,3.0,4.0,76,0.00,,,0.00,0,Wunderground v.1.15,2013-02-23 23:38:00,
2013-02-23 17:40:00,27.4,20.8,29.97,SW,228,3.0,3.0,76,0.00,,,0.00,0,Wunderground v.1.15,2013-02-23 23:40:00,
2013-02-23 17:42:00,27.4,20.8,29.97,SW,228,3.0,3.0,76,0.00,,,0.00,0,Wunderground v.1.15,2013-02-23 23:42:00,
2013-02-23 17:43:00,27.4,20.8,29.97,SW,228,3.0,4.0,76,0.00,,,0.00,0,Wunderground v.1.15,2013-02-23 23:43:00,
2013-02-23 17:44:00,27.4,20.8,29.97,SW,228,3.0,4.0,76,0.00,,,0.00,0,Wunderground v.1.15,2013-02-23 23:44:00,
2013-02-23 17:47:00,27.3,20.7,29.98,SW,228,3.0,4.0,76,0.00,,,0.00,0,Wunderground v.1.15,2013-02-23 23:47:00,
2013-02-23 17:48:00,27.2,20.6,29.98,SW,228,3.0,4.0,76,0.00,,,0.00,0,Wunderground v.1.15,2013-02-23 23:48:00,
2013-02-23 17:49:00,27.2,20.6,29.98,SW,228,3.0,4.0,76,0.00,,,0.00,0,Wunderground v.1.15,2013-02-23 23:49:00,
2013-02-23 17:50:00,27.2,20.6,29.98,SW,228,3.0,3.0,76,0.00,,,0.00,0,Wunderground v.1.15,2013-02-23 23:50:00,
2013-02-23 17:55:00,27.1,20.5,29.98,SW,228,3.0,6.0,76,0.00,,,0.00,0,Wunderground v.1.15,2013-02-23 23:55:00,
2013-02-23 17:57:00,27.1,20.5,29.98,SW,228,3.0,6.0,76,0.00,,,0.00,0,Wunderground v.1.15,2013-02-23 23:57:00,
2013-02-23 17:58:00,27.1,20.5,29.98,SW,228,3.0,6.0,76,0.00,,,0.00,0,Wunderground v.1.15,2013-02-23 23:58:00,
2013-02-23 17:59:00,27.1,20.5,29.98,SW,228,3.0,6.0,76,0.00,,,0.00,0,Wunderground v.1.15,2013-02-23 23:59:00,
2013-02-23 18:02:00,27.1,20.5,29.98,SW,228,3.0,3.0,76,0.00,,,0.00,0,Wunderground v.1.15,2013-02-24 00:02:00,
2013-02-23 18:03:00,27.1,20.5,29.98,SW,228,3.0,3.0,76,0.00,,,0.00,0,Wunderground v.1.15,2013-02-24 00:03:00,
2013-02-23 18:04:00,27.1,20.5,29.98,SW,228,3.0,3.0,76,0.00,,,0.00,0,Wunderground v.1.15,2013-02-24 00:04:00,
2013-02-23 18:08:00,27.0,20.7,29.98,SW,228,3.0,3.0,77,0.00,,,0.00,0,Wunderground v.1.15,2013-02-24 00:08:00,
2013-02-23 18:10:00,27.0,20.7,29.98,SW,228,3.0,3.0,77,0.00,,,0.00,0,Wunderground v.1.15,2013-02-24 00:10:00,
2013-02-23 18:11:00,27.0,20.7,29.98,SW,228,3.0,3.0,77,0.00,,,0.00,0,Wunderground v.1.15,2013-02-24 00:11:00,
2013-02-23 18:12:00,27.0,20.7,29.98,SW,227,3.0,6.0,77,0.00,,,0.00,0,Wunderground v.1.15,2013-02-24 00:12:00,
2013-02-23 18:15:00,26.9,20.7,29.98,SW,233,3.0,6.0,77,0.00,,,0.00,0,Wunderground v.1.15,2013-02-24 00:15:00,
2013-02-23 18:16:00,26.9,20.7,29.98,SW,233,3.0,6.0,77,0.00,,,0.00,0,Wunderground v.1.15,2013-02-24 00:16:00,
2013-02-23 18:18:00,26.9,20.7,29.98,SW,232,3.0,6.0,77,0.00,,,0.00,0,Wunderground v.1.15,2013-02-24 00:18:00,
2013-02-23 18:19:00,26.9,20.7,29.99,SW,232,3.0,6.0,77,0.00,,,0.00,0,Wunderground v.1.15,2013-02-24 00:19:00,
2013-02-23 18:22:00,26.9,20.7,29.99,SW,232,3.0,3.0,77,0.00,,,0.00,0,Wunderground v.1.15,2013-02-24 00:22:00,
2013-02-23 18:24:00,26.9,20.7,29.99,SW,232,3.0,3.0,77,0.00,,,0.00,0,Wunderground v.1.15,2013-02-24 00:24:00,
2013-02-23 18:26:00,26.8,20.6,29.99,SW,232,3.0,3.0,77,0.00,,,0.00,0,Wunderground v.1.15,2013-02-24 00:26:00,
2013-02-23 18:27:00,26.8,20.6,29.99,SW,232,3.0,4.0,77,0.00,,,0.00,0,Wunderground v.1.15,2013-02-24 00:27:00,
2013-02-23 18:28:00,26.8,20.6,29.99,WSW,252,3.0,4.0,77,0.00,,,0.00,0,Wunderground v.1.15,2013-02-24 00:28:00,
2013-02-23 18:31:00,26.9,20.7,29.99,WSW,246,3.0,4.0,77,0.00,,,0.00,0,Wunderground v.1.15,2013-02-24 00:31:00,
2013-02-23 18:32:00,26.9,20.7,29.99,WSW,246,3.0,4.0,77,0.00,,,0.00,0,Wunderground v.1.15,2013-02-24 00:32:00,
2013-02-23 18:33:00,26.9,20.7,29.99,WSW,239,3.0,4.0,77,0.00,,,0.00,0,Wunderground v.1.15,2013-02-24 00:33:00,
2013-02-23 18:37:00,26.8,20.6,29.99,WSW,239,3.0,4.0,77,0.00,,,0.00,0,Wunderground v.1.15,2013-02-24 00:37:00,
2013-02-23 18:38:00,26.8,20.6,29.99,WSW,237,3.0,4.0,77,0.00,,,0.00,0,Wunderground v.1.15,2013-02-24 00:38:00,
2013-02-23 18:41:00,26.8,20.6,29.99,SW,217,4.0,6.0,77,0.00,,,0.00,0,Wunderground v.1.15,2013-02-24 00:41:00,
2013-02-23 18:45:00,26.8,20.6,30.00,SW,215,3.0,6.0,77,0.00,,,0.00,0,Wunderground v.1.15,2013-02-24 00:45:00,
2013-02-23 18:46:00,26.8,20.6,30.00,SW,215,3.0,6.0,77,0.00,,,0.00,0,Wunderground v.1.15,2013-02-24 00:46:00,
2013-02-23 18:48:00,26.7,20.5,30.00,SW,215,3.0,6.0,77,0.00,,,0.00,0,Wunderground v.1.15,2013-02-24 00:48:00,
2013-02-23 18:51:00,26.7,20.5,29.99,SW,221,3.0,6.0,77,0.00,,,0.00,0,Wunderground v.1.15,2013-02-24 00:51:00,
2013-02-23 18:53:00,26.7,20.5,30.00,SW,221,3.0,6.0,77,0.00,,,0.00,0,Wunderground v.1.15,2013-02-24 00:53:00,
2013-02-23 18:55:00,26.7,20.5,30.00,SW,225,3.0,6.0,77,0.00,,,0.00,0,Wunderground v.1.15,2013-02-24 00:55:00,
2013-02-23 18:56:00,26.7,20.5,30.00,SW,236,3.0,6.0,77,0.00,,,0.00,0,Wunderground v.1.15,2013-02-24 00:56:00,
2013-02-23 18:58:00,26.7,20.5,30.00,SW,229,3.0,6.0,77,0.00,,,0.00,0,Wunderground v.1.15,2013-02-24 00:58:00,
2013-02-23 18:59:00,26.7,20.5,30.00,SW,229,3.0,6.0,77,0.00,,,0.00,0,Wunderground v.1.15,2013-02-24 00:59:00,
2013-02-23 19:03:00,26.6,20.4,30.00,SW,234,3.0,5.0,77,0.00,,,0.00,0,Wunderground v.1.15,2013-02-24 01:03:00,
2013-02-23 19:04:00,26.6,20.4,30.00,SW,234,3.0,5.0,77,0.00,,,0.00,0,Wunderground v.1.15,2013-02-24 01:04:00,
2013-02-23 19:07:00,26.6,20.4,30.00,SW,234,2.0,5.0,77,0.00,,,0.00,0,Wunderground v.1.15,2013-02-24 01:07:00,
2013-02-23 19:08:00,26.6,20.4,30.00,SW,234,2.0,5.0,77,0.00,,,0.00,0,Wunderground v.1.15,2013-02-24 01:08:00,
2013-02-23 19:12:00,26.6,20.4,30.00,SW,217,3.0,5.0,77,0.00,,,0.00,0,Wunderground v.1.15,2013-02-24 01:12:00,
2013-02-23 19:13:00,26.6,20.4,30.00,SW,219,2.0,5.0,77,0.00,,,0.00,0,Wunderground v.1.15,2013-02-24 01:13:00,
2013-02-23 19:14:00,26.6,20.4,30.00,SW,219,3.0,5.0,77,0.00,,,0.00,0,Wunderground v.1.15,2013-02-24 01:14:00,
2013-02-23 19:18:00,26.6,20.4,30.00,SW,219,3.0,5.0,77,0.00,,,0.00,0,Wunderground v.1.15,2013-02-24 01:18:00,
2013-02-23 19:20:00,26.6,20.4,30.01,SW,219,2.0,2.0,77,0.00,,,0.00,0,Wunderground v.1.15,2013-02-24 01:20:00,
2013-02-23 19:22:00,26.6,20.4,30.01,SW,219,2.0,5.0,77,0.00,,,0.00,0,Wunderground v.1.15,2013-02-24 01:22:00,
2013-02-23 19:26:00,26.6,20.7,30.01,SW,222,3.0,5.0,78,0.00,,,0.00,0,Wunderground v.1.15,2013-02-24 01:26:00,
2013-02-23 19:27:00,26.5,20.6,30.01,SW,222,3.0,5.0,78,0.00,,,0.00,0,Wunderground v.1.15,2013-02-24 01:27:00,
2013-02-23 19:30:00,26.5,20.3,30.01,SW,220,3.0,3.0,77,0.00,,,0.00,0,Wunderground v.1.15,2013-02-24 01:30:00,
2013-02-23 19:32:00,26.5,20.3,30.01,SW,232,3.0,6.0,77,0.00,,,0.00,0,Wunderground v.1.15,2013-02-24 01:32:00,
2013-02-23 19:33:00,26.5,20.3,30.01,SW,230,4.0,6.0,77,0.00,,,0.00,0,Wunderground v.1.15,2013-02-24 01:33:00,
2013-02-23 19:36:00,26.5,20.3,30.01,SW,214,4.0,6.0,77,0.00,,,0.00,0,Wunderground v.1.15,2013-02-24 01:36:00,
2013-02-23 19:37:00,26.5,20.3,30.01,SW,214,4.0,6.0,77,0.00,,,0.00,0,Wunderground v.1.15,2013-02-24 01:37:00,
2013-02-23 19:39:00,26.5,20.3,30.01,SW,214,4.0,6.0,77,0.00,,,0.00,0,Wunderground v.1.15,2013-02-24 01:39:00,
2013-02-23 19:44:00,26.4,20.5,30.01,SW,214,3.0,5.0,78,0.00,,,0.00,0,Wunderground v.1.15,2013-02-24 01:44:00,
2013-02-23 19:45:00,26.4,20.5,30.01,SW,214,3.0,5.0,78,0.00,,,0.00,0,Wunderground v.1.15,2013-02-24 01:45:00,
2013-02-23 19:46:00,26.4,20.5,30.01,SW,214,3.0,5.0,78,0.00,,,0.00,0,Wunderground v.1.15,2013-02-24 01:46:00,
2013-02-23 19:49:00,26.4,20.5,30.01,SW,214,3.0,5.0,78,0.00,,,0.00,0,Wunderground v.1.15,2013-02-24 01:49:00,
2013-02-23 19:51:00,26.4,20.5,30.01,SW,214,3.0,3.0,78,0.00,,,0.00,0,Wunderground v.1.15,2013-02-24 01:51:00,
2013-02-23 19:54:00,26.3,20.4,30.02,SW,215,3.0,5.0,78,0.00,,,0.00,0,Wunderground v.1.15,2013-02-24 01:54:00,
2013-02-23 19:56:00,26.3,20.4,30.02,SW,215,3.0,5.0,78,0.00,,,0.00,0,Wunderground v.1.15,2013-02-24 01:56:00,
2013-02-23 20:00:00,26.3,20.4,30.02,SW,215,3.0,3.0,78,0.00,,,0.00,0,Wunderground v.1.15,2013-02-24 02:00:00,
2013-02-23 20:01:00,26.3,20.4,30.02,SW,215,3.0,3.0,78,0.00,,,0.00,0,Wunderground v.1.15,2013-02-24 02:01:00,
2013-02-23 20:04:00,26.3,20.4,30.02,SW,215,3.0,3.0,78,0.00,,,0.00,0,Wunderground v.1.15,2013-02-24 02:04:00,
2013-02-23 20:05:00,26.3,20.4,30.02,SW,215,3.0,3.0,78,0.00,,,0.00,0,Wunderground v.1.15,2013-02-24 02:05:00,
2013-02-23 20:07:00,26.3,20.4,30.02,SW,215,3.0,3.0,78,0.00,,,0.00,0,Wunderground v.1.15,2013-02-24 02:07:00,
2013-02-23 20:10:00,26.2,20.6,30.02,SW,215,2.0,2.0,79,0.00,,,0.00,0,Wunderground v.1.15,2013-02-24 02:10:00,
2013-02-23 20:11:00,26.3,20.7,30.02,SW,215,2.0,2.0,79,0.00,,,0.00,0,Wunderground v.1.15,2013-02-24 02:11:00,
2013-02-23 20:15:00,26.2,20.6,30.02,SW,215,1.0,2.0,79,0.00,,,0.00,0,Wunderground v.1.15,2013-02-24 02:15:00,
2013-02-23 20:16:00,26.2,20.6,30.02,SW,217,1.0,3.0,79,0.00,,,0.00,0,Wunderground v.1.15,2013-02-24 02:16:00,
2013-02-23 20:20:00,26.1,20.5,30.02,SW,236,2.0,5.0,79,0.00,,,0.00,0,Wunderground v.1.15,2013-02-24 02:20:00,
2013-02-23 20:21:00,26.1,20.5,30.02,SW,232,2.0,5.0,79,0.00,,,0.00,0,Wunderground v.1.15,2013-02-24 02:21:00,
2013-02-23 20:22:00,26.1,20.5,30.02,SW,232,2.0,5.0,79,0.00,,,0.00,0,Wunderground v.1.15,2013-02-24 02:22:00,
2013-02-23 20:25:00,26.1,20.5,30.02,SW,226,3.0,8.0,79,0.00,,,0.00,0,Wunderground v.1.15,2013-02-24 02:25:00,
2013-02-23 20:27:00,26.1,20.5,30.02,SW,221,3.0,8.0,79,0.00,,,0.00,0,Wunderground v.1.15,2013-02-24 02:27:00,
2013-02-23 20:30:00,26.1,20.5,30.03,SW,221,3.0,3.0,79,0.00,,,0.00,0,Wunderground v.1.15,2013-02-24 02:30:00,
2013-02-23 20:32:00,26.1,20.5,30.02,SW,221,3.0,4.0,79,0.00,,,0.00,0,Wunderground v.1.15,2013-02-24 02:32:00,
2013-02-23 20:37:00,26.0,20.4,30.02,SW,228,2.0,5.0,79,0.00,,,0.00,0,Wunderground v.1.15,2013-02-24 02:37:00,
2013-02-23 20:39:00,26.0,20.4,30.02,SW,229,3.0,6.0,79,0.00,,,0.00,0,Wunderground v.1.15,2013-02-24 02:39:00,
2013-02-23 20:43:00,26.0,20.4,30.02,SW,229,4.0,4.0,79,0.00,,,0.00,0,Wunderground v.1.15,2013-02-24 02:43:00,
2013-02-23 20:46:00,25.9,20.3,30.02,SW,229,3.0,4.0,79,0.00,,,0.00,0,Wunderground v.1.15,2013-02-24 02:46:00,
2013-02-23 20:49:00,25.9,20.6,30.02,SW,229,2.0,4.0,80,0.00,,,0.00,0,Wunderground v.1.15,2013-02-24 02:49:00,
2013-02-23 20:51:00,25.8,20.2,30.02,SW,229,2.0,2.0,79,0.00,,,0.00,0,Wunderground v.1.15,2013-02-24 02:51:00,
2013-02-23 20:52:00,25.8,20.2,30.03,SW,229,1.0,2.0,79,0.00,,,0.00,0,Wunderground v.1.15,2013-02-24 02:52:00,
2013-02-23 20:56:00,25.8,20.2,30.03,SW,229,1.0,2.0,79,0.00,,,0.00,0,Wunderground v.1.15,2013-02-24 02:56:00,
2013-02-23 21:01:00,25.8,20.2,30.03,SW,229,1.0,1.0,79,0.00,,,0.00,0,Wunderground v.1.15,2013-02-24 03:01:00,
2013-02-23 21:03:00,25.8,20.5,30.03,SW,229,1.0,1.0,80,0.00,,,0.00,0,Wunderground v.1.15,2013-02-24 03:03:00,
2013-02-23 21:05:00,25.7,20.4,30.03,SW,229,1.0,1.0,80,0.00,,,0.00,0,Wunderground v.1.15,2013-02-24 03:05:00,
2013-02-23 21:10:00,25.7,20.4,30.02,SW,229,1.0,1.0,80,0.00,,,0.00,0,Wunderground v.1.15,2013-02-24 03:10:00,
2013-02-23 21:11:00,25.6,20.3,30.02,SW,229,1.0,2.0,80,0.00,,,0.00,0,Wunderground v.1.15,2013-02-24 03:11:00,
2013-02-23 21:15:00,25.6,20.3,30.02,SW,229,1.0,2.0,80,0.00,,,0.00,0,Wunderground v.1.15,2013-02-24 03:15:00,
2013-02-23 21:16:00,25.6,20.3,30.02,SW,229,1.0,2.0,80,0.00,,,0.00,0,Wunderground v.1.15,2013-02-24 03:16:00,
2013-02-23 21:17:00,25.5,20.2,30.02,SW,229,1.0,2.0,80,0.00,,,0.00,0,Wunderground v.1.15,2013-02-24 03:17:00,
2013-02-23 21:22:00,25.4,20.1,30.02,SW,229,0.0,1.0,80,0.00,,,0.00,0,Wunderground v.1.15,2013-02-24 03:22:00,
2013-02-23 21:24:00,25.3,20.0,30.02,SW,229,0.0,1.0,80,0.00,,,0.00,0,Wunderground v.1.15,2013-02-24 03:24:00,
2013-02-23 21:25:00,25.2,19.9,30.02,SW,229,0.0,1.0,80,0.00,,,0.00,0,Wunderground v.1.15,2013-02-24 03:25:00,
2013-02-23 21:30:00,24.9,19.6,30.02,SW,229,0.0,0.0,80,0.00,,,0.00,0,Wunderground v.1.15,2013-02-24 03:30:00,
2013-02-23 21:31:00,24.9,19.6,30.02,SW,229,0.0,0.0,80,0.00,,,0.00,0,Wunderground v.1.15,2013-02-24 03:31:00,
2013-02-23 21:32:00,24.8,19.5,30.03,SW,229,0.0,1.0,80,0.00,,,0.00,0,Wunderground v.1.15,2013-02-24 03:32:00,
2013-02-23 21:35:00,24.7,19.7,30.03,SW,229,0.0,1.0,81,0.00,,,0.00,0,Wunderground v.1.15,2013-02-24 03:35:00,
2013-02-23 21:36:00,24.7,19.7,30.03,SW,229,0.0,1.0,81,0.00,,,0.00,0,Wunderground v.1.15,2013-02-24 03:36:00,
2013-02-23 21:37:00,24.7,19.7,30.03,SW,229,1.0,2.0,81,0.00,,,0.00,0,Wunderground v.1.15,2013-02-24 03:37:00,
2013-02-23 21:42:00,24.4,19.4,30.03,SW,229,1.0,1.0,81,0.00,,,0.00,0,Wunderground v.1.15,2013-02-24 03:42:00,
2013-02-23 21:43:00,24.4,19.4,30.03,SW,229,0.0,1.0,81,0.00,,,0.00,0,Wunderground v.1.15,2013-02-24 03:43:00,
2013-02-23 21:48:00,24.2,19.2,30.03,SW,229,0.0,2.0,81,0.00,,,0.00,0,Wunderground v.1.15,2013-02-24 03:48:00,
2013-02-23 21:49:00,24.0,19.0,30.03,SW,229,0.0,2.0,81,0.00,,,0.00,0,Wunderground v.1.15,2013-02-24 03:49:00,
2013-02-23 21:51:00,23.9,18.9,30.03,SW,229,0.0,0.0,81,0.00,,,0.00,0,Wunderground v.1.15,2013-02-24 03:51:00,
2013-02-23 21:55:00,23.8,19.1,30.03,SW,229,0.0,0.0,82,0.00,,,0.00,0,Wunderground v.1.15,2013-02-24 03:55:00,
2013-02-23 21:56:00,23.8,19.1,30.03,SW,229,0.0,0.0,82,0.00,,,0.00,0,Wunderground v.1.15,2013-02-24 03:56:00,
2013-02-23 21:59:00,23.8,19.1,30.03,SW,229,0.0,0.0,82,0.00,,,0.00,0,Wunderground v.1.15,2013-02-24 03:59:00,
2013-02-23 22:01:00,23.8,19.1,30.03,SW,229,0.0,0.0,82,0.00,,,0.00,0,Wunderground v.1.15,2013-02-24 04:01:00,
2013-02-23 22:06:00,23.6,18.9,30.03,SW,229,0.0,0.0,82,0.00,,,0.00,0,Wunderground v.1.15,2013-02-24 04:06:00,
2013-02-23 22:08:00,23.6,18.9,30.03,SW,229,0.0,0.0,82,0.00,,,0.00,0,Wunderground v.1.15,2013-02-24 04:08:00,
2013-02-23 22:10:00,23.5,18.8,30.03,SW,229,0.0,0.0,82,0.00,,,0.00,0,Wunderground v.1.15,2013-02-24 04:10:00,
2013-02-23 22:12:00,23.4,19.0,30.03,SW,229,0.0,0.0,83,0.00,,,0.00,0,Wunderground v.1.15,2013-02-24 04:12:00,
2013-02-23 22:13:00,23.3,18.9,30.03,SW,229,0.0,0.0,83,0.00,,,0.00,0,Wunderground v.1.15,2013-02-24 04:13:00,
2013-02-23 22:18:00,22.8,18.4,30.03,SW,229,0.0,0.0,83,0.00,,,0.00,0,Wunderground v.1.15,2013-02-24 04:18:00,
2013-02-23 22:19:00,22.8,18.4,30.03,SW,229,0.0,0.0,83,0.00,,,0.00,0,Wunderground v.1.15,2013-02-24 04:19:00,
2013-02-23 22:20:00,22.8,18.4,30.03,SW,229,0.0,0.0,83,0.00,,,0.00,0,Wunderground v.1.15,2013-02-24 04:20:00,
2013-02-23 22:24:00,22.4,18.0,30.03,SW,229,0.0,0.0,83,0.00,,,0.00,0,Wunderground v.1.15,2013-02-24 04:24:00,
2013-02-23 22:25:00,22.4,18.3,30.03,SW,229,0.0,0.0,84,0.00,,,0.00,0,Wunderground v.1.15,2013-02-24 04:25:00,
2013-02-23 22:28:00,22.2,18.1,30.03,SW,229,0.0,0.0,84,0.00,,,0.00,0,Wunderground v.1.15,2013-02-24 04:28:00,
2013-02-23 22:31:00,22.0,17.9,30.03,SW,229,0.0,0.0,84,0.00,,,0.00,0,Wunderground v.1.15,2013-02-24 04:31:00,
2013-02-23 22:33:00,22.1,18.0,30.03,SW,229,0.0,0.0,84,0.00,,,0.00,0,Wunderground v.1.15,2013-02-24 04:33:00,
2013-02-23 22:36:00,22.0,17.9,30.03,SW,229,0.0,0.0,84,0.00,,,0.00,0,Wunderground v.1.15,2013-02-24 04:36:00,
2013-02-23 22:37:00,21.9,17.8,30.03,SW,229,0.0,0.0,84,0.00,,,0.00,0,Wunderground v.1.15,2013-02-24 04:37:00,
2013-02-23 22:43:00,21.2,17.4,30.03,SW,229,0.0,0.0,85,0.00,,,0.00,0,Wunderground v.1.15,2013-02-24 04:43:00,
2013-02-23 22:44:00,21.1,17.3,30.03,SW,229,0.0,0.0,85,0.00,,,0.00,0,Wunderground v.1.15,2013-02-24 04:44:00,
2013-02-23 22:49:00,20.6,16.8,30.03,SW,229,0.0,0.0,85,0.00,,,0.00,0,Wunderground v.1.15,2013-02-24 04:49:00,
2013-02-23 22:53:00,20.3,16.5,30.03,SW,229,0.0,0.0,85,0.00,,,0.00,0,Wunderground v.1.15,2013-02-24 04:53:00,
2013-02-23 22:55:00,20.2,16.4,30.03,SW,229,0.0,0.0,85,0.00,,,0.00,0,Wunderground v.1.15,2013-02-24 04:55:00,
2013-02-23 22:59:00,19.7,16.2,30.03,SW,229,0.0,1.0,86,0.00,,,0.00,0,Wunderground v.1.15,2013-02-24 04:59:00,
2013-02-23 23:00:00,19.6,16.1,30.04,SW,229,0.0,0.0,86,0.00,,,0.00,0,Wunderground v.1.15,2013-02-24 05:00:00,
2013-02-23 23:02:00,19.6,16.1,30.04,SW,229,0.0,0.0,86,0.00,,,0.00,0,Wunderground v.1.15,2013-02-24 05:02:00,
2013-02-23 23:04:00,19.6,16.1,30.04,SW,229,0.0,0.0,86,0.00,,,0.00,0,Wunderground v.1.15,2013-02-24 05:04:00,
2013-02-23 23:05:00,19.6,16.1,30.04,SW,229,0.0,0.0,86,0.00,,,0.00,0,Wunderground v.1.15,2013-02-24 05:05:00,
2013-02-23 23:06:00,19.5,16.0,30.04,SW,229,0.0,0.0,86,0.00,,,0.00,0,Wunderground v.1.15,2013-02-24 05:06:00,
2013-02-23 23:11:00,18.7,15.2,30.04,SW,229,0.0,0.0,86,0.00,,,0.00,0,Wunderground v.1.15,2013-02-24 05:11:00,
2013-02-23 23:12:00,18.6,15.1,30.04,SW,229,0.0,0.0,86,0.00,,,0.00,0,Wunderground v.1.15,2013-02-24 05:12:00,
2013-02-23 23:14:00,18.4,14.9,30.04,SW,229,0.0,0.0,86,0.00,,,0.00,0,Wunderground v.1.15,2013-02-24 05:14:00,
2013-02-23 23:16:00,18.3,14.8,30.04,SW,229,0.0,1.0,86,0.00,,,0.00,0,Wunderground v.1.15,2013-02-24 05:16:00,
2013-02-23 23:17:00,18.3,15.1,30.04,SW,229,0.0,1.0,87,0.00,,,0.00,0,Wunderground v.1.15,2013-02-24 05:17:00,
2013-02-23 23:18:00,18.3,15.1,30.04,SW,229,0.0,1.0,87,0.00,,,0.00,0,Wunderground v.1.15,2013-02-24 05:18:00,
2013-02-23 23:19:00,18.4,15.2,30.04,SW,229,0.0,1.0,87,0.00,,,0.00,0,Wunderground v.1.15,2013-02-24 05:19:00,
2013-02-23 23:23:00,18.4,15.2,30.04,SW,229,0.0,0.0,87,0.00,,,0.00,0,Wunderground v.1.15,2013-02-24 05:23:00,
2013-02-23 23:25:00,18.3,15.1,30.04,SW,229,0.0,0.0,87,0.00,,,0.00,0,Wunderground v.1.15,2013-02-24 05:25:00,
2013-02-23 23:26:00,18.3,15.1,30.04,SW,229,0.0,0.0,87,0.00,,,0.00,0,Wunderground v.1.15,2013-02-24 05:26:00,
2013-02-23 23:27:00,18.2,15.2,30.04,SW,229,0.0,0.0,88,0.00,,,0.00,0,Wunderground v.1.15,2013-02-24 05:27:00,
2013-02-23 23:28:00,18.1,14.9,30.04,SW,229,0.0,0.0,87,0.00,,,0.00,0,Wunderground v.1.15,2013-02-24 05:28:00,
2013-02-23 23:33:00,17.7,14.8,30.05,SW,229,0.0,0.0,88,0.00,,,0.00,0,Wunderground v.1.15,2013-02-24 05:33:00,
2013-02-23 23:35:00,17.7,14.8,30.05,SW,229,0.0,0.0,88,0.00,,,0.00,0,Wunderground v.1.15,2013-02-24 05:35:00,
2013-02-23 23:37:00,17.5,14.3,30.05,SW,229,0.0,1.0,87,0.00,,,0.00,0,Wunderground v.1.15,2013-02-24 05:37:00,
2013-02-23 23:38:00,17.3,14.1,30.05,SW,229,0.0,1.0,87,0.00,,,0.00,0,Wunderground v.1.15,2013-02-24 05:38:00,
2013-02-23 23:41:00,17.2,14.3,30.05,SW,229,0.0,0.0,88,0.00,,,0.00,0,Wunderground v.1.15,2013-02-24 05:41:00,
2013-02-23 23:44:00,16.9,14.0,30.05,SW,229,0.0,0.0,88,0.00,,,0.00,0,Wunderground v.1.15,2013-02-24 05:44:00,
2013-02-23 23:46:00,16.7,13.8,30.05,SW,229,0.0,0.0,88,0.00,,,0.00,0,Wunderground v.1.15,2013-02-24 05:46:00,
2013-02-23 23:47:00,16.6,13.7,30.05,SW,229,0.0,0.0,88,0.00,,,0.00,0,Wunderground v.1.15,2013-02-24 05:47:00,
2013-02-23 23:49:00,16.3,13.4,30.05,SW,229,0.0,0.0,88,0.00,,,0.00,0,Wunderground v.1.15,2013-02-24 05:49:00,
2013-02-23 23:51:00,16.1,13.2,30.05,SW,229,0.0,0.0,88,0.00,,,0.00,0,Wunderground v.1.15,2013-02-24 05:51:00,
2013-02-23 23:52:00,16.1,13.2,30.05,SW,229,0.0,0.0,88,0.00,,,0.00,0,Wunderground v.1.15,2013-02-24 05:52:00,
2013-02-23 23:55:00,16.2,13.5,30.05,SW,229,0.0,0.0,89,0.00,,,0.00,0,Wunderground v.1.15,2013-02-24 05:55:00,
2013-02-23 23:59:00,16.2,13.5,30.05,SW,229,0.0,0.0,89,0.00,,,0.00,0,Wunderground v.1.15,2013-02-24 05:59:00,